Observation data for Happy on 01/17/2021      Previous  Date  Next       Current Mesonet Observations  Soil Data  Daily Summary Page  Observations in Plain Language
KHA2 170600Z 31008KT M01/M05 A3011 RMK A01 T10081052  RH  072%=      5-min Rain = 0
KHA2 170601Z 31008KT M01/M05 A3011 RMK A01 T10081052  RH  072%=      5-min Rain = 0
KHA2 170602Z 31008KT M01/M05 A3011 RMK A01 T10091053  RH  072%=      5-min Rain = 0
KHA2 170603Z 31009KT M01/M05 A3011 RMK A01 T10101053  RH  072%=      5-min Rain = 0
KHA2 170604Z 31009KT M01/M05 A3011 RMK A01 T10101053  RH  072%=      5-min Rain = 0
KHA2 170605Z 31008KT M01/M06 A3011 RMK A01 T10111055  RH  072%=      5-min Rain = 0
KHA2 170606Z 31008KT M01/M06 A3011 RMK A01 T10121055  RH  073%=      5-min Rain = 0
KHA2 170607Z 31009KT M01/M06 A3011 RMK A01 T10131055  RH  073%=      5-min Rain = 0
KHA2 170608Z 31008KT M01/M06 A3011 RMK A01 T10131055  RH  073%=      5-min Rain = 0
KHA2 170609Z 31009KT M01/M06 A3012 RMK A01 T10131055  RH  073%=      5-min Rain = 0
KHA2 170610Z 31009KT M01/M06 A3012 RMK A01 T10141056  RH  073%=      5-min Rain = 0
KHA2 170611Z 31009KT M02/M06 A3012 RMK A01 T10151056  RH  073%=      5-min Rain = 0
KHA2 170612Z 31009KT M02/M06 A3011 RMK A01 T10161057  RH  074%=      5-min Rain = 0
KHA2 170613Z 31009KT M02/M06 A3011 RMK A01 T10151056  RH  074%=      5-min Rain = 0
KHA2 170614Z 31009KT M02/M06 A3011 RMK A01 T10151055  RH  074%=      5-min Rain = 0
KHA2 170615Z 31009KT M01/M05 A3011 RMK A01 T10141054  RH  074%=      5-min Rain = 0
KHA2 170616Z 32009KT M01/M05 A3011 RMK A01 T10141054  RH  074%=      5-min Rain = 0
KHA2 170617Z 32009KT M01/M06 A3011 RMK A01 T10141055  RH  074%=      5-min Rain = 0
KHA2 170618Z 32009KT M01/M06 A3012 RMK A01 T10141055  RH  074%=      5-min Rain = 0
KHA2 170619Z 31009KT M01/M05 A3012 RMK A01 T10141054  RH  074%=      5-min Rain = 0
KHA2 170620Z 32009KT M01/M05 A3012 RMK A01 T10141054  RH  074%=      5-min Rain = 0
KHA2 170621Z 32009KT M01/M05 A3012 RMK A01 T10141054  RH  074%=      5-min Rain = 0
KHA2 170622Z 32009KT M01/M05 A3012 RMK A01 T10131054  RH  074%=      5-min Rain = 0
KHA2 170623Z 32009KT M01/M06 A3012 RMK A01 T10141055  RH  074%=      5-min Rain = 0
KHA2 170624Z 32009KT M01/M05 A3012 RMK A01 T10141054  RH  074%=      5-min Rain = 0
KHA2 170625Z 31009KT M01/M05 A3012 RMK A01 T10131054  RH  074%=      5-min Rain = 0
KHA2 170626Z 31009KT M01/M05 A3012 RMK A01 T10131053  RH  074%=      5-min Rain = 0
KHA2 170627Z 31009KT M01/M05 A3012 RMK A01 T10121053  RH  074%=      5-min Rain = 0
KHA2 170628Z 31009KT M01/M05 A3012 RMK A01 T10121053  RH  074%=      5-min Rain = 0
KHA2 170629Z 31009KT M01/M05 A3012 RMK A01 T10111052  RH  074%=      5-min Rain = 0
KHA2 170630Z 32009KT M01/M05 A3012 RMK A01 T10101050  RH  074%=      5-min Rain = 0
KHA2 170631Z 32009KT M01/M05 A3012 RMK A01 T10091051  RH  074%=      5-min Rain = 0
KHA2 170632Z 32009KT M01/M05 A3012 RMK A01 T10091051  RH  073%=      5-min Rain = 0
KHA2 170633Z 31010KT M01/M05 A3012 RMK A01 T10101051  RH  073%=      5-min Rain = 0
KHA2 170634Z 31009KT M01/M05 A3012 RMK A01 T10101051  RH  073%=      5-min Rain = 0
KHA2 170635Z 31010KT M01/M05 A3012 RMK A01 T10101051  RH  073%=      5-min Rain = 0
KHA2 170636Z 31010KT M01/M05 A3012 RMK A01 T10091050  RH  074%=      5-min Rain = 0
KHA2 170637Z 32010KT M01/M05 A3012 RMK A01 T10081050  RH  073%=      5-min Rain = 0
KHA2 170638Z 32010KT M01/M05 A3012 RMK A01 T10081051  RH  073%=      5-min Rain = 0
KHA2 170639Z 32009KT M01/M05 A3012 RMK A01 T10091052  RH  073%=      5-min Rain = 0
KHA2 170640Z 32009KT M01/M05 A3012 RMK A01 T10101052  RH  073%=      5-min Rain = 0
KHA2 170641Z 32009KT M01/M05 A3012 RMK A01 T10101051  RH  074%=      5-min Rain = 0
KHA2 170642Z 32009KT M01/M05 A3012 RMK A01 T10101051  RH  074%=      5-min Rain = 0
KHA2 170643Z 32009KT M01/M05 A3012 RMK A01 T10111052  RH  074%=      5-min Rain = 0
KHA2 170644Z 32009KT M01/M05 A3012 RMK A01 T10111052  RH  074%=      5-min Rain = 0
KHA2 170645Z 32009KT M01/M05 A3012 RMK A01 T10111051  RH  074%=      5-min Rain = 0
KHA2 170646Z 32009KT M01/M05 A3012 RMK A01 T10111051  RH  074%=      5-min Rain = 0
KHA2 170647Z 32009KT M01/M05 A3012 RMK A01 T10111052  RH  074%=      5-min Rain = 0
KHA2 170648Z 32009KT M01/M05 A3012 RMK A01 T10111052  RH  074%=      5-min Rain = 0
KHA2 170649Z 32009KT M01/M05 A3012 RMK A01 T10111051  RH  074%=      5-min Rain = 0
KHA2 170650Z 31009KT M01/M05 A3012 RMK A01 T10121052  RH  074%=      5-min Rain = 0
KHA2 170651Z 31009KT M01/M05 A3012 RMK A01 T10111051  RH  074%=      5-min Rain = 0
KHA2 170652Z 31009KT M01/M05 A3012 RMK A01 T10111051  RH  074%=      5-min Rain = 0
KHA2 170653Z 31009KT M01/M05 A3012 RMK A01 T10121052  RH  074%=      5-min Rain = 0
KHA2 170654Z 32009KT M01/M05 A3012 RMK A01 T10131052  RH  075%=      5-min Rain = 0
KHA2 170655Z 32009KT M01/M05 A3012 RMK A01 T10131051  RH  075%=      5-min Rain = 0
KHA2 170656Z 31009KT M01/M05 A3012 RMK A01 T10121051  RH  075%=      5-min Rain = 0
KHA2 170657Z 31009KT M01/M05 A3012 RMK A01 T10111050  RH  075%=      5-min Rain = 0
KHA2 170658Z 31009KT M01/M05 A3011 RMK A01 T10111049  RH  075%=      5-min Rain = 0
KHA2 170659Z 32009KT M01/M05 A3011 RMK A01 T10101049  RH  075%=      5-min Rain = 0
KHA2 170700Z 32009KT M01/M05 A3011 RMK A01 T10101049  RH  075%=      5-min Rain = 0
KHA2 170701Z 32009KT M01/M05 A3011 RMK A01 T10101050  RH  074%=      5-min Rain = 0
KHA2 170702Z 32009KT M01/M05 A3011 RMK A01 T10111050  RH  074%=      5-min Rain = 0
KHA2 170703Z 32009KT M01/M05 A3011 RMK A01 T10111050  RH  075%=      5-min Rain = 0
KHA2 170704Z 32009KT M01/M05 A3011 RMK A01 T10111050  RH  075%=      5-min Rain = 0
KHA2 170705Z 32009KT M01/M05 A3011 RMK A01 T10111050  RH  075%=      5-min Rain = 0
KHA2 170706Z 32009KT M01/M05 A3011 RMK A01 T10121051  RH  075%=      5-min Rain = 0
KHA2 170707Z 32009KT M01/M05 A3011 RMK A01 T10121051  RH  075%=      5-min Rain = 0
KHA2 170708Z 32009KT M01/M05 A3011 RMK A01 T10121052  RH  075%=      5-min Rain = 0
KHA2 170709Z 32009KT M01/M05 A3012 RMK A01 T10141053  RH  075%=      5-min Rain = 0
KHA2 170710Z 32009KT M01/M05 A3012 RMK A01 T10141053  RH  075%=      5-min Rain = 0
KHA2 170711Z 32009KT M01/M05 A3011 RMK A01 T10141052  RH  075%=      5-min Rain = 0
KHA2 170712Z 32009KT M02/M05 A3012 RMK A01 T10151053  RH  075%=      5-min Rain = 0
KHA2 170713Z 32008KT M02/M05 A3012 RMK A01 T10151052  RH  076%=      5-min Rain = 0
KHA2 170714Z 32008KT M02/M05 A3012 RMK A01 T10161053  RH  076%=      5-min Rain = 0
KHA2 170715Z 32008KT M02/M05 A3012 RMK A01 T10161053  RH  076%=      5-min Rain = 0
KHA2 170716Z 32008KT M02/M05 A3012 RMK A01 T10161053  RH  076%=      5-min Rain = 0
KHA2 170717Z 32008KT M02/M05 A3012 RMK A01 T10161053  RH  076%=      5-min Rain = 0
KHA2 170718Z 32008KT M02/M05 A3012 RMK A01 T10161053  RH  076%=      5-min Rain = 0
KHA2 170719Z 32008KT M02/M05 A3012 RMK A01 T10161053  RH  076%=      5-min Rain = 0
KHA2 170720Z 32008KT M02/M05 A3012 RMK A01 T10171053  RH  076%=      5-min Rain = 0
KHA2 170721Z 32008KT M02/M05 A3012 RMK A01 T10161052  RH  076%=      5-min Rain = 0
KHA2 170722Z 32009KT M02/M05 A3012 RMK A01 T10151051  RH  076%=      5-min Rain = 0
KHA2 170723Z 32008KT M02/M05 A3012 RMK A01 T10151052  RH  076%=      5-min Rain = 0
KHA2 170724Z 32008KT M02/M05 A3012 RMK A01 T10151052  RH  076%=      5-min Rain = 0
KHA2 170725Z 32008KT M02/M05 A3012 RMK A01 T10161052  RH  076%=      5-min Rain = 0
KHA2 170726Z 32008KT M02/M05 A3012 RMK A01 T10161052  RH  076%=      5-min Rain = 0
KHA2 170727Z 32008KT M02/M05 A3012 RMK A01 T10161052  RH  076%=      5-min Rain = 0
KHA2 170728Z 32009KT M02/M05 A3012 RMK A01 T10161053  RH  076%=      5-min Rain = 0
KHA2 170729Z 32009KT M02/M05 A3012 RMK A01 T10161053  RH  076%=      5-min Rain = 0
KHA2 170730Z 32009KT M02/M05 A3012 RMK A01 T10171054  RH  076%=      5-min Rain = 0
KHA2 170731Z 33008KT M02/M05 A3012 RMK A01 T10171053  RH  076%=      5-min Rain = 0
KHA2 170732Z 33008KT M02/M05 A3012 RMK A01 T10181054  RH  076%=      5-min Rain = 0
KHA2 170733Z 33008KT M02/M06 A3012 RMK A01 T10191055  RH  076%=      5-min Rain = 0
KHA2 170734Z 33009KT M02/M06 A3012 RMK A01 T10201056  RH  077%=      5-min Rain = 0
KHA2 170735Z 33009KT M02/M06 A3012 RMK A01 T10211057  RH  077%=      5-min Rain = 0
KHA2 170736Z 33009KT M02/M06 A3012 RMK A01 T10221057  RH  077%=      5-min Rain = 0
KHA2 170737Z 33009KT M02/M06 A3012 RMK A01 T10221056  RH  077%=      5-min Rain = 0
KHA2 170738Z 33009KT M02/M06 A3012 RMK A01 T10221056  RH  077%=      5-min Rain = 0
KHA2 170739Z 33009KT M02/M06 A3012 RMK A01 T10211055  RH  078%=      5-min Rain = 0
KHA2 170740Z 33009KT M02/M05 A3012 RMK A01 T10201054  RH  078%=      5-min Rain = 0
KHA2 170741Z 33009KT M02/M05 A3012 RMK A01 T10201054  RH  077%=      5-min Rain = 0
KHA2 170742Z 33009KT M02/M05 A3012 RMK A01 T10191054  RH  077%=      5-min Rain = 0
KHA2 170743Z 33009KT M02/M05 A3012 RMK A01 T10191054  RH  077%=      5-min Rain = 0
KHA2 170744Z 33009KT M02/M05 A3012 RMK A01 T10191054  RH  077%=      5-min Rain = 0
KHA2 170745Z 33009KT M02/M05 A3012 RMK A01 T10191053  RH  077%=      5-min Rain = 0
KHA2 170746Z 33008KT M02/M05 A3012 RMK A01 T10191053  RH  077%=      5-min Rain = 0
KHA2 170747Z 33009KT M02/M05 A3012 RMK A01 T10181053  RH  077%=      5-min Rain = 0
KHA2 170748Z 33009KT M02/M05 A3012 RMK A01 T10191053  RH  078%=      5-min Rain = 0
KHA2 170749Z 33008KT M02/M05 A3012 RMK A01 T10181053  RH  077%=      5-min Rain = 0
KHA2 170750Z 33008KT M02/M05 A3012 RMK A01 T10181052  RH  077%=      5-min Rain = 0
KHA2 170751Z 33009KT M02/M05 A3012 RMK A01 T10181052  RH  077%=      5-min Rain = 0
KHA2 170752Z 33009KT M02/M05 A3012 RMK A01 T10181052  RH  077%=      5-min Rain = 0
KHA2 170753Z 33009KT M02/M05 A3012 RMK A01 T10171051  RH  078%=      5-min Rain = 0
KHA2 170754Z 33009KT M02/M05 A3012 RMK A01 T10161050  RH  078%=      5-min Rain = 0
KHA2 170755Z 33009KT M02/M05 A3012 RMK A01 T10151050  RH  077%=      5-min Rain = 0
KHA2 170756Z 33009KT M01/M05 A3013 RMK A01 T10141049  RH  077%=      5-min Rain = 0
KHA2 170757Z 33010KT M01/M05 A3013 RMK A01 T10131049  RH  077%=      5-min Rain = 0
KHA2 170758Z 33010KT M01/M05 A3013 RMK A01 T10131049  RH  077%=      5-min Rain = 0
KHA2 170759Z 33010KT M01/M05 A3013 RMK A01 T10131048  RH  077%=      5-min Rain = 0
KHA2 170800Z 33011KT M01/M05 A3013 RMK A01 T10111047  RH  077%=      5-min Rain = 0
KHA2 170801Z 33010KT M01/M05 A3013 RMK A01 T10111048  RH  076%=      5-min Rain = 0
KHA2 170802Z 33011KT M01/M05 A3013 RMK A01 T10101048  RH  076%=      5-min Rain = 0
KHA2 170803Z 33011KT M01/M05 A3013 RMK A01 T10091047  RH  075%=      5-min Rain = 0
KHA2 170804Z 33011KT M01/M05 A3013 RMK A01 T10101049  RH  075%=      5-min Rain = 0
KHA2 170805Z 33011KT M01/M05 A3013 RMK A01 T10111050  RH  075%=      5-min Rain = 0
KHA2 170806Z 33011KT M01/M05 A3013 RMK A01 T10121050  RH  075%=      5-min Rain = 0
KHA2 170807Z 33010KT M01/M05 A3013 RMK A01 T10131051  RH  075%=      5-min Rain = 0
KHA2 170808Z 33010KT M01/M05 A3013 RMK A01 T10141051  RH  076%=      5-min Rain = 0
KHA2 170809Z 33010KT M02/M05 A3013 RMK A01 T10151052  RH  076%=      5-min Rain = 0
KHA2 170810Z 33010KT M02/M05 A3013 RMK A01 T10151052  RH  076%=      5-min Rain = 0
KHA2 170811Z 33010KT M02/M05 A3013 RMK A01 T10151051  RH  076%=      5-min Rain = 0
KHA2 170812Z 33010KT M02/M05 A3013 RMK A01 T10151051  RH  076%=      5-min Rain = 0
KHA2 170813Z 33010KT M02/M05 A3013 RMK A01 T10151052  RH  076%=      5-min Rain = 0
KHA2 170814Z 33010KT M02/M05 A3013 RMK A01 T10151052  RH  076%=      5-min Rain = 0
KHA2 170815Z 33009KT M02/M05 A3013 RMK A01 T10151052  RH  076%=      5-min Rain = 0
KHA2 170816Z 33009KT M02/M05 A3013 RMK A01 T10151052  RH  076%=      5-min Rain = 0
KHA2 170817Z 33009KT M02/M05 A3013 RMK A01 T10151053  RH  076%=      5-min Rain = 0
KHA2 170818Z 33009KT M02/M05 A3013 RMK A01 T10151053  RH  075%=      5-min Rain = 0
KHA2 170819Z 33009KT M02/M05 A3013 RMK A01 T10161054  RH  076%=      5-min Rain = 0
KHA2 170820Z 33009KT M02/M05 A3013 RMK A01 T10161054  RH  076%=      5-min Rain = 0
KHA2 170821Z 33008KT M02/M05 A3013 RMK A01 T10171054  RH  076%=      5-min Rain = 0
KHA2 170822Z 33008KT M02/M05 A3013 RMK A01 T10171054  RH  076%=      5-min Rain = 0
KHA2 170823Z 33008KT M02/M05 A3013 RMK A01 T10171054  RH  076%=      5-min Rain = 0
KHA2 170824Z 32008KT M02/M05 A3013 RMK A01 T10181054  RH  076%=      5-min Rain = 0
KHA2 170825Z 33008KT M02/M05 A3013 RMK A01 T10171054  RH  076%=      5-min Rain = 0
KHA2 170826Z 33008KT M02/M05 A3013 RMK A01 T10171053  RH  076%=      5-min Rain = 0
KHA2 170827Z 32009KT M02/M05 A3013 RMK A01 T10161053  RH  076%=      5-min Rain = 0
KHA2 170828Z 32009KT M02/M05 A3013 RMK A01 T10161053  RH  076%=      5-min Rain = 0
KHA2 170829Z 33009KT M02/M05 A3013 RMK A01 T10161053  RH  076%=      5-min Rain = 0
KHA2 170830Z 33009KT M02/M05 A3013 RMK A01 T10151053  RH  076%=      5-min Rain = 0
KHA2 170831Z 33009KT M02/M05 A3013 RMK A01 T10151053  RH  076%=      5-min Rain = 0
KHA2 170832Z 33009KT M02/M05 A3013 RMK A01 T10161053  RH  075%=      5-min Rain = 0
KHA2 170833Z 33009KT M02/M05 A3013 RMK A01 T10161053  RH  076%=      5-min Rain = 0
KHA2 170834Z 33008KT M02/M05 A3013 RMK A01 T10161053  RH  076%=      5-min Rain = 0
KHA2 170835Z 33009KT M02/M05 A3013 RMK A01 T10161053  RH  076%=      5-min Rain = 0
KHA2 170836Z 33009KT M02/M05 A3013 RMK A01 T10161054  RH  076%=      5-min Rain = 0
KHA2 170837Z 33009KT M02/M05 A3013 RMK A01 T10171054  RH  076%=      5-min Rain = 0
KHA2 170838Z 33008KT M02/M05 A3013 RMK A01 T10181054  RH  076%=      5-min Rain = 0
KHA2 170839Z 33008KT M02/M06 A3013 RMK A01 T10191055  RH  076%=      5-min Rain = 0
KHA2 170840Z 33008KT M02/M06 A3013 RMK A01 T10191055  RH  077%=      5-min Rain = 0
KHA2 170841Z 33008KT M02/M06 A3013 RMK A01 T10201055  RH  077%=      5-min Rain = 0
KHA2 170842Z 33008KT M02/M06 A3013 RMK A01 T10201055  RH  077%=      5-min Rain = 0
KHA2 170843Z 33008KT M02/M05 A3013 RMK A01 T10201054  RH  077%=      5-min Rain = 0
KHA2 170844Z 33008KT M02/M05 A3013 RMK A01 T10201054  RH  078%=      5-min Rain = 0
KHA2 170845Z 33008KT M02/M05 A3013 RMK A01 T10201054  RH  078%=      5-min Rain = 0
KHA2 170846Z 33008KT M02/M05 A3013 RMK A01 T10201054  RH  078%=      5-min Rain = 0
KHA2 170847Z 33007KT M02/M05 A3013 RMK A01 T10201054  RH  078%=      5-min Rain = 0
KHA2 170848Z 33007KT M02/M05 A3013 RMK A01 T10201054  RH  078%=      5-min Rain = 0
KHA2 170849Z 33008KT M02/M05 A3013 RMK A01 T10201053  RH  078%=      5-min Rain = 0
KHA2 170850Z 33007KT M02/M05 A3013 RMK A01 T10211054  RH  078%=      5-min Rain = 0
KHA2 170851Z 33007KT M02/M05 A3013 RMK A01 T10211054  RH  078%=      5-min Rain = 0
KHA2 170852Z 33007KT M02/M05 A3013 RMK A01 T10211054  RH  078%=      5-min Rain = 0
KHA2 170853Z 33008KT M02/M05 A3013 RMK A01 T10221054  RH  078%=      5-min Rain = 0
KHA2 170854Z 33008KT M02/M05 A3013 RMK A01 T10221054  RH  079%=      5-min Rain = 0
KHA2 170855Z 33008KT M02/M05 A3013 RMK A01 T10221053  RH  079%=      5-min Rain = 0
KHA2 170856Z 33007KT M02/M05 A3013 RMK A01 T10221054  RH  079%=      5-min Rain = 0
KHA2 170857Z 33008KT M02/M05 A3013 RMK A01 T10221054  RH  079%=      5-min Rain = 0
KHA2 170858Z 33008KT M02/M05 A3013 RMK A01 T10221054  RH  079%=      5-min Rain = 0
KHA2 170859Z 33008KT M02/M05 A3013 RMK A01 T10221053  RH  079%=      5-min Rain = 0
KHA2 170900Z 33008KT M02/M05 A3013 RMK A01 T10211053  RH  079%=      5-min Rain = 0
KHA2 170901Z 33008KT M02/M05 A3013 RMK A01 T10211053  RH  079%=      5-min Rain = 0
KHA2 170902Z 33008KT M02/M05 A3013 RMK A01 T10211053  RH  079%=      5-min Rain = 0
KHA2 170903Z 33008KT M02/M05 A3013 RMK A01 T10201053  RH  078%=      5-min Rain = 0
KHA2 170904Z 33008KT M02/M05 A3013 RMK A01 T10201053  RH  079%=      5-min Rain = 0
KHA2 170905Z 33008KT M02/M05 A3013 RMK A01 T10201053  RH  079%=      5-min Rain = 0
KHA2 170906Z 33008KT M02/M05 A3013 RMK A01 T10201053  RH  079%=      5-min Rain = 0
KHA2 170907Z 33008KT M02/M05 A3013 RMK A01 T10201052  RH  079%=      5-min Rain = 0
KHA2 170908Z 33008KT M02/M05 A3013 RMK A01 T10191052  RH  078%=      5-min Rain = 0
KHA2 170909Z 33008KT M02/M05 A3013 RMK A01 T10191052  RH  078%=      5-min Rain = 0
KHA2 170910Z 33008KT M02/M05 A3013 RMK A01 T10191052  RH  079%=      5-min Rain = 0
KHA2 170911Z 33008KT M02/M05 A3013 RMK A01 T10191051  RH  079%=      5-min Rain = 0
KHA2 170912Z 33008KT M02/M05 A3013 RMK A01 T10191051  RH  079%=      5-min Rain = 0
KHA2 170913Z 33009KT M02/M05 A3013 RMK A01 T10181051  RH  078%=      5-min Rain = 0
KHA2 170914Z 33009KT M02/M05 A3013 RMK A01 T10181051  RH  078%=      5-min Rain = 0
KHA2 170915Z 33009KT M02/M05 A3013 RMK A01 T10181052  RH  078%=      5-min Rain = 0
KHA2 170916Z 33009KT M02/M05 A3013 RMK A01 T10181052  RH  077%=      5-min Rain = 0
KHA2 170917Z 33009KT M02/M05 A3013 RMK A01 T10181053  RH  077%=      5-min Rain = 0
KHA2 170918Z 33009KT M02/M05 A3013 RMK A01 T10181053  RH  077%=      5-min Rain = 0
KHA2 170919Z 33010KT M02/M05 A3013 RMK A01 T10191054  RH  077%=      5-min Rain = 0
KHA2 170920Z 33010KT M02/M06 A3013 RMK A01 T10191055  RH  077%=      5-min Rain = 0
KHA2 170921Z 33010KT M02/M06 A3013 RMK A01 T10201055  RH  077%=      5-min Rain = 0
KHA2 170922Z 33009KT M02/M06 A3013 RMK A01 T10201056  RH  077%=      5-min Rain = 0
KHA2 170923Z 33009KT M02/M06 A3013 RMK A01 T10211057  RH  077%=      5-min Rain = 0
KHA2 170924Z 33009KT M02/M06 A3013 RMK A01 T10221057  RH  077%=      5-min Rain = 0
KHA2 170925Z 34009KT M02/M06 A3013 RMK A01 T10231058  RH  077%=      5-min Rain = 0
KHA2 170926Z 34009KT M02/M06 A3013 RMK A01 T10231059  RH  077%=      5-min Rain = 0
KHA2 170927Z 34009KT M02/M06 A3013 RMK A01 T10231059  RH  077%=      5-min Rain = 0
KHA2 170928Z 34009KT M02/M06 A3013 RMK A01 T10231059  RH  076%=      5-min Rain = 0
KHA2 170929Z 34009KT M02/M06 A3013 RMK A01 T10231060  RH  076%=      5-min Rain = 0
KHA2 170930Z 34008KT M02/M06 A3013 RMK A01 T10231060  RH  075%=      5-min Rain = 0
KHA2 170931Z 34008KT M02/M06 A3013 RMK A01 T10231061  RH  075%=      5-min Rain = 0
KHA2 170932Z 34008KT M02/M06 A3013 RMK A01 T10231062  RH  075%=      5-min Rain = 0
KHA2 170933Z 34008KT M02/M06 A3013 RMK A01 T10231062  RH  074%=      5-min Rain = 0
KHA2 170934Z 35008KT M02/M06 A3013 RMK A01 T10231063  RH  074%=      5-min Rain = 0
KHA2 170935Z 35008KT M02/M06 A3013 RMK A01 T10221063  RH  074%=      5-min Rain = 0
KHA2 170936Z 35008KT M02/M06 A3013 RMK A01 T10221063  RH  073%=      5-min Rain = 0
KHA2 170937Z 35008KT M02/M06 A3013 RMK A01 T10211063  RH  073%=      5-min Rain = 0
KHA2 170938Z 35008KT M02/M06 A3013 RMK A01 T10201063  RH  072%=      5-min Rain = 0
KHA2 170939Z 34008KT M02/M06 A3013 RMK A01 T10201064  RH  072%=      5-min Rain = 0
KHA2 170940Z 34008KT M02/M06 A3013 RMK A01 T10201064  RH  072%=      5-min Rain = 0
KHA2 170941Z 34008KT M02/M06 A3013 RMK A01 T10201064  RH  072%=      5-min Rain = 0
KHA2 170942Z 34008KT M02/M06 A3013 RMK A01 T10201064  RH  072%=      5-min Rain = 0
KHA2 170943Z 34008KT M02/M06 A3013 RMK A01 T10201064  RH  072%=      5-min Rain = 0
KHA2 170944Z 34008KT M02/M06 A3013 RMK A01 T10201064  RH  072%=      5-min Rain = 0
KHA2 170945Z 34007KT M02/M06 A3013 RMK A01 T10201064  RH  072%=      5-min Rain = 0
KHA2 170946Z 34008KT M02/M06 A3013 RMK A01 T10201063  RH  072%=      5-min Rain = 0
KHA2 170947Z 33007KT M02/M06 A3013 RMK A01 T10201063  RH  073%=      5-min Rain = 0
KHA2 170948Z 33008KT M02/M06 A3013 RMK A01 T10201061  RH  074%=      5-min Rain = 0
KHA2 170949Z 33008KT M02/M06 A3013 RMK A01 T10211061  RH  074%=      5-min Rain = 0
KHA2 170950Z 33008KT M02/M06 A3013 RMK A01 T10221062  RH  074%=      5-min Rain = 0
KHA2 170951Z 33008KT M02/M06 A3013 RMK A01 T10231062  RH  075%=      5-min Rain = 0
KHA2 170952Z 33009KT M02/M06 A3013 RMK A01 T10241061  RH  076%=      5-min Rain = 0
KHA2 170953Z 33009KT M02/M06 A3013 RMK A01 T10241060  RH  076%=      5-min Rain = 0
KHA2 170954Z 33009KT M03/M06 A3013 RMK A01 T10251059  RH  077%=      5-min Rain = 0
KHA2 170955Z 33009KT M03/M06 A3012 RMK A01 T10251059  RH  077%=      5-min Rain = 0
KHA2 170956Z 33009KT M03/M06 A3012 RMK A01 T10251059  RH  078%=      5-min Rain = 0
KHA2 170957Z 33009KT M03/M06 A3012 RMK A01 T10251059  RH  078%=      5-min Rain = 0
KHA2 170958Z 33009KT M03/M06 A3012 RMK A01 T10251059  RH  078%=      5-min Rain = 0
KHA2 170959Z 33009KT M03/M06 A3012 RMK A01 T10261059  RH  078%=      5-min Rain = 0
KHA2 171000Z 33009KT M03/M06 A3012 RMK A01 T10261059  RH  078%=      5-min Rain = 0
KHA2 171001Z 33009KT M03/M06 A3012 RMK A01 T10261058  RH  079%=      5-min Rain = 0
KHA2 171002Z 33009KT M03/M06 A3012 RMK A01 T10261058  RH  079%=      5-min Rain = 0
KHA2 171003Z 33009KT M03/M06 A3012 RMK A01 T10261058  RH  079%=      5-min Rain = 0
KHA2 171004Z 33009KT M03/M06 A3012 RMK A01 T10261059  RH  079%=      5-min Rain = 0
KHA2 171005Z 33009KT M03/M06 A3012 RMK A01 T10271059  RH  079%=      5-min Rain = 0
KHA2 171006Z 33009KT M03/M06 A3012 RMK A01 T10271059  RH  079%=      5-min Rain = 0
KHA2 171007Z 33009KT M03/M06 A3012 RMK A01 T10271059  RH  079%=      5-min Rain = 0
KHA2 171008Z 33009KT M03/M06 A3012 RMK A01 T10281060  RH  079%=      5-min Rain = 0
KHA2 171009Z 33009KT M03/M06 A3012 RMK A01 T10281060  RH  079%=      5-min Rain = 0
KHA2 171010Z 33009KT M03/M06 A3012 RMK A01 T10281060  RH  079%=      5-min Rain = 0
KHA2 171011Z 33009KT M03/M06 A3012 RMK A01 T10291061  RH  079%=      5-min Rain = 0
KHA2 171012Z 33009KT M03/M06 A3012 RMK A01 T10291061  RH  079%=      5-min Rain = 0
KHA2 171013Z 33009KT M03/M06 A3012 RMK A01 T10291060  RH  079%=      5-min Rain = 0
KHA2 171014Z 33009KT M03/M06 A3013 RMK A01 T10291061  RH  079%=      5-min Rain = 0
KHA2 171015Z 33009KT M03/M06 A3013 RMK A01 T10291061  RH  079%=      5-min Rain = 0
KHA2 171016Z 33009KT M03/M06 A3013 RMK A01 T10291061  RH  079%=      5-min Rain = 0
KHA2 171017Z 33009KT M03/M06 A3013 RMK A01 T10301062  RH  079%=      5-min Rain = 0
KHA2 171018Z 33009KT M03/M06 A3013 RMK A01 T10301062  RH  079%=      5-min Rain = 0
KHA2 171019Z 33009KT M03/M06 A3013 RMK A01 T10301061  RH  079%=      5-min Rain = 0
KHA2 171020Z 33009KT M03/M06 A3013 RMK A01 T10291062  RH  078%=      5-min Rain = 0
KHA2 171021Z 33009KT M03/M06 A3013 RMK A01 T10291062  RH  078%=      5-min Rain = 0
KHA2 171022Z 33009KT M03/M06 A3013 RMK A01 T10291061  RH  078%=      5-min Rain = 0
KHA2 171023Z 33009KT M03/M06 A3013 RMK A01 T10281061  RH  078%=      5-min Rain = 0
KHA2 171024Z 33009KT M03/M06 A3013 RMK A01 T10281062  RH  078%=      5-min Rain = 0
KHA2 171025Z 33010KT M03/M06 A3013 RMK A01 T10291062  RH  078%=      5-min Rain = 0
KHA2 171026Z 33010KT M03/M06 A3013 RMK A01 T10291063  RH  078%=      5-min Rain = 0
KHA2 171027Z 33009KT M03/M06 A3013 RMK A01 T10301063  RH  078%=      5-min Rain = 0
KHA2 171028Z 33009KT M03/M06 A3013 RMK A01 T10301063  RH  078%=      5-min Rain = 0
KHA2 171029Z 33009KT M03/M06 A3013 RMK A01 T10301063  RH  078%=      5-min Rain = 0
KHA2 171030Z 33009KT M03/M06 A3013 RMK A01 T10301063  RH  078%=      5-min Rain = 0
KHA2 171031Z 33009KT M03/M06 A3013 RMK A01 T10291063  RH  078%=      5-min Rain = 0
KHA2 171032Z 33009KT M03/M06 A3013 RMK A01 T10291063  RH  078%=      5-min Rain = 0
KHA2 171033Z 33009KT M03/M06 A3013 RMK A01 T10301063  RH  078%=      5-min Rain = 0
KHA2 171034Z 33009KT M03/M06 A3013 RMK A01 T10301063  RH  078%=      5-min Rain = 0
KHA2 171035Z 33009KT M03/M06 A3013 RMK A01 T10301063  RH  078%=      5-min Rain = 0
KHA2 171036Z 33009KT M03/M06 A3013 RMK A01 T10301063  RH  078%=      5-min Rain = 0
KHA2 171037Z 33009KT M03/M06 A3013 RMK A01 T10291062  RH  078%=      5-min Rain = 0
KHA2 171038Z 33009KT M03/M06 A3013 RMK A01 T10281062  RH  078%=      5-min Rain = 0
KHA2 171039Z 33009KT M03/M06 A3013 RMK A01 T10281062  RH  078%=      5-min Rain = 0
KHA2 171040Z 33009KT M03/M06 A3013 RMK A01 T10281062  RH  078%=      5-min Rain = 0
KHA2 171041Z 33009KT M03/M06 A3012 RMK A01 T10271061  RH  077%=      5-min Rain = 0
KHA2 171042Z 33009KT M03/M06 A3012 RMK A01 T10271062  RH  077%=      5-min Rain = 0
KHA2 171043Z 33009KT M03/M06 A3012 RMK A01 T10271062  RH  077%=      5-min Rain = 0
KHA2 171044Z 33009KT M03/M06 A3012 RMK A01 T10271062  RH  077%=      5-min Rain = 0
KHA2 171045Z 33009KT M03/M06 A3012 RMK A01 T10261062  RH  076%=      5-min Rain = 0
KHA2 171046Z 33009KT M03/M06 A3012 RMK A01 T10261062  RH  076%=      5-min Rain = 0
KHA2 171047Z 32009KT M03/M06 A3012 RMK A01 T10261062  RH  076%=      5-min Rain = 0
KHA2 171048Z 32009KT M03/M06 A3012 RMK A01 T10261062  RH  076%=      5-min Rain = 0
KHA2 171049Z 32009KT M03/M06 A3012 RMK A01 T10261062  RH  076%=      5-min Rain = 0
KHA2 171050Z 32009KT M03/M06 A3012 RMK A01 T10261062  RH  076%=      5-min Rain = 0
KHA2 171051Z 32009KT M03/M06 A3012 RMK A01 T10251062  RH  076%=      5-min Rain = 0
KHA2 171052Z 32009KT M03/M06 A3012 RMK A01 T10251062  RH  075%=      5-min Rain = 0
KHA2 171053Z 33009KT M02/M06 A3012 RMK A01 T10241062  RH  075%=      5-min Rain = 0
KHA2 171054Z 33010KT M02/M06 A3012 RMK A01 T10241063  RH  075%=      5-min Rain = 0
KHA2 171055Z 33009KT M02/M06 A3012 RMK A01 T10241063  RH  075%=      5-min Rain = 0
KHA2 171056Z 33010KT M02/M06 A3012 RMK A01 T10241063  RH  074%=      5-min Rain = 0
KHA2 171057Z 33009KT M02/M06 A3012 RMK A01 T10231063  RH  074%=      5-min Rain = 0
KHA2 171058Z 33009KT M02/M06 A3012 RMK A01 T10231064  RH  073%=      5-min Rain = 0
KHA2 171059Z 33009KT M02/M06 A3012 RMK A01 T10221064  RH  073%=      5-min Rain = 0
KHA2 171100Z 33009KT M02/M06 A3012 RMK A01 T10221064  RH  073%=      5-min Rain = 0
KHA2 171101Z 33009KT M02/M07 A3012 RMK A01 T10221065  RH  073%=      5-min Rain = 0
KHA2 171102Z 33009KT M02/M07 A3012 RMK A01 T10231065  RH  073%=      5-min Rain = 0
KHA2 171103Z 33008KT M02/M07 A3012 RMK A01 T10231065  RH  073%=      5-min Rain = 0
KHA2 171104Z 32008KT M02/M07 A3012 RMK A01 T10241066  RH  073%=      5-min Rain = 0
KHA2 171105Z 33008KT M03/M07 A3012 RMK A01 T10251066  RH  073%=      5-min Rain = 0
KHA2 171106Z 33008KT M03/M07 A3012 RMK A01 T10251066  RH  074%=      5-min Rain = 0
KHA2 171107Z 33008KT M03/M07 A3012 RMK A01 T10261066  RH  074%=      5-min Rain = 0
KHA2 171108Z 32008KT M03/M07 A3012 RMK A01 T10261066  RH  074%=      5-min Rain = 0
KHA2 171109Z 33008KT M03/M07 A3012 RMK A01 T10261066  RH  074%=      5-min Rain = 0
KHA2 171110Z 33009KT M03/M07 A3012 RMK A01 T10271067  RH  074%=      5-min Rain = 0
KHA2 171111Z 33008KT M03/M07 A3012 RMK A01 T10271066  RH  074%=      5-min Rain = 0
KHA2 171112Z 33008KT M03/M07 A3012 RMK A01 T10271066  RH  074%=      5-min Rain = 0
KHA2 171113Z 33009KT M03/M07 A3012 RMK A01 T10271067  RH  074%=      5-min Rain = 0
KHA2 171114Z 33009KT M03/M07 A3012 RMK A01 T10271067  RH  074%=      5-min Rain = 0
KHA2 171115Z 33009KT M03/M07 A3012 RMK A01 T10271067  RH  074%=      5-min Rain = 0
KHA2 171116Z 33009KT M03/M07 A3012 RMK A01 T10251066  RH  073%=      5-min Rain = 0
KHA2 171117Z 33009KT M03/M07 A3012 RMK A01 T10251067  RH  073%=      5-min Rain = 0
KHA2 171118Z 33009KT M03/M07 A3012 RMK A01 T10251067  RH  073%=      5-min Rain = 0
KHA2 171119Z 33009KT M03/M07 A3012 RMK A01 T10261068  RH  073%=      5-min Rain = 0
KHA2 171120Z 34009KT M03/M07 A3012 RMK A01 T10271068  RH  073%=      5-min Rain = 0
KHA2 171121Z 34009KT M03/M07 A3012 RMK A01 T10271068  RH  073%=      5-min Rain = 0
KHA2 171122Z 34008KT M03/M07 A3012 RMK A01 T10271068  RH  073%=      5-min Rain = 0
KHA2 171123Z 34008KT M03/M07 A3012 RMK A01 T10271068  RH  073%=      5-min Rain = 0
KHA2 171124Z 34008KT M03/M07 A3012 RMK A01 T10291069  RH  074%=      5-min Rain = 0
KHA2 171125Z 34008KT M03/M07 A3012 RMK A01 T10291069  RH  074%=      5-min Rain = 0
KHA2 171126Z 34007KT M03/M07 A3012 RMK A01 T10301069  RH  074%=      5-min Rain = 0
KHA2 171127Z 34007KT M03/M07 A3012 RMK A01 T10311070  RH  074%=      5-min Rain = 0
KHA2 171128Z 34007KT M03/M07 A3012 RMK A01 T10321071  RH  075%=      5-min Rain = 0
KHA2 171129Z 34007KT M03/M07 A3012 RMK A01 T10341071  RH  075%=      5-min Rain = 0
KHA2 171130Z 34007KT M04/M07 A3012 RMK A01 T10351071  RH  076%=      5-min Rain = 0
KHA2 171131Z 34007KT M04/M07 A3012 RMK A01 T10351071  RH  076%=      5-min Rain = 0
KHA2 171132Z 34007KT M04/M07 A3012 RMK A01 T10351071  RH  076%=      5-min Rain = 0
KHA2 171133Z 34007KT M04/M07 A3012 RMK A01 T10351071  RH  076%=      5-min Rain = 0
KHA2 171134Z 33008KT M04/M07 A3013 RMK A01 T10351071  RH  076%=      5-min Rain = 0
KHA2 171135Z 33008KT M04/M07 A3013 RMK A01 T10361071  RH  076%=      5-min Rain = 0
KHA2 171136Z 33008KT M04/M07 A3013 RMK A01 T10351071  RH  076%=      5-min Rain = 0
KHA2 171137Z 33008KT M04/M07 A3013 RMK A01 T10351071  RH  076%=      5-min Rain = 0
KHA2 171138Z 33008KT M04/M07 A3013 RMK A01 T10361071  RH  076%=      5-min Rain = 0
KHA2 171139Z 33008KT M04/M07 A3013 RMK A01 T10361072  RH  076%=      5-min Rain = 0
KHA2 171140Z 33009KT M04/M07 A3013 RMK A01 T10361072  RH  076%=      5-min Rain = 0
KHA2 171141Z 33008KT M04/M07 A3013 RMK A01 T10361072  RH  076%=      5-min Rain = 0
KHA2 171142Z 33009KT M04/M07 A3013 RMK A01 T10351072  RH  076%=      5-min Rain = 0
KHA2 171143Z 33009KT M04/M07 A3013 RMK A01 T10351072  RH  075%=      5-min Rain = 0
KHA2 171144Z 33008KT M04/M07 A3013 RMK A01 T10351072  RH  075%=      5-min Rain = 0
KHA2 171145Z 33008KT M04/M07 A3013 RMK A01 T10351073  RH  075%=      5-min Rain = 0
KHA2 171146Z 33008KT M04/M07 A3013 RMK A01 T10351073  RH  075%=      5-min Rain = 0
KHA2 171147Z 34008KT M03/M07 A3013 RMK A01 T10341073  RH  075%=      5-min Rain = 0
KHA2 171148Z 33008KT M03/M07 A3013 RMK A01 T10341073  RH  074%=      5-min Rain = 0
KHA2 171149Z 33008KT M03/M07 A3013 RMK A01 T10341073  RH  074%=      5-min Rain = 0
KHA2 171150Z 34008KT M03/M07 A3013 RMK A01 T10331073  RH  074%=      5-min Rain = 0
KHA2 171151Z 34008KT M03/M07 A3013 RMK A01 T10331073  RH  073%=      5-min Rain = 0
KHA2 171152Z 34008KT M03/M07 A3013 RMK A01 T10321073  RH  073%=      5-min Rain = 0
KHA2 171153Z 34008KT M03/M07 A3013 RMK A01 T10321074  RH  073%=      5-min Rain = 0
KHA2 171154Z 34008KT M03/M07 A3013 RMK A01 T10311073  RH  072%=      5-min Rain = 0
KHA2 171155Z 34008KT M03/M07 A3013 RMK A01 T10301073  RH  072%=      5-min Rain = 0
KHA2 171156Z 34008KT M03/M07 A3013 RMK A01 T10301074  RH  072%=      5-min Rain = 0
KHA2 171157Z 34008KT M03/M07 A3013 RMK A01 T10301074  RH  072%=      5-min Rain = 0
KHA2 171158Z 34009KT M03/M07 A3013 RMK A01 T10291074  RH  071%=      5-min Rain = 0
KHA2 171159Z 34008KT M03/M07 A3013 RMK A01 T10291074  RH  071%=      5-min Rain = 0
KHA2 171200Z 34008KT M03/M07 A3013 RMK A01 T10281074  RH  071%=      5-min Rain = 0
KHA2 171201Z 34009KT M03/M07 A3013 RMK A01 T10291074  RH  071%=      5-min Rain = 0
KHA2 171202Z 34009KT M03/M07 A3013 RMK A01 T10291074  RH  071%=      5-min Rain = 0
KHA2 171203Z 34009KT M03/M07 A3013 RMK A01 T10281074  RH  071%=      5-min Rain = 0
KHA2 171204Z 34008KT M03/M07 A3013 RMK A01 T10281074  RH  071%=      5-min Rain = 0
KHA2 171205Z 33008KT M03/M07 A3013 RMK A01 T10281074  RH  070%=      5-min Rain = 0
KHA2 171206Z 33008KT M03/M07 A3014 RMK A01 T10281074  RH  071%=      5-min Rain = 0
KHA2 171207Z 33008KT M03/M08 A3014 RMK A01 T10301075  RH  071%=      5-min Rain = 0
KHA2 171208Z 34008KT M03/M08 A3014 RMK A01 T10301075  RH  071%=      5-min Rain = 0
KHA2 171209Z 34008KT M03/M08 A3014 RMK A01 T10311075  RH  071%=      5-min Rain = 0
KHA2 171210Z 34008KT M03/M08 A3014 RMK A01 T10311075  RH  072%=      5-min Rain = 0
KHA2 171211Z 34008KT M03/M08 A3014 RMK A01 T10311075  RH  072%=      5-min Rain = 0
KHA2 171212Z 33008KT M03/M08 A3014 RMK A01 T10311075  RH  072%=      5-min Rain = 0
KHA2 171213Z 33008KT M03/M08 A3014 RMK A01 T10321075  RH  072%=      5-min Rain = 0
KHA2 171214Z 34008KT M03/M08 A3014 RMK A01 T10321076  RH  072%=      5-min Rain = 0
KHA2 171215Z 34008KT M03/M08 A3014 RMK A01 T10331076  RH  072%=      5-min Rain = 0
KHA2 171216Z 34008KT M03/M08 A3014 RMK A01 T10321076  RH  072%=      5-min Rain = 0
KHA2 171217Z 33008KT M03/M08 A3014 RMK A01 T10331076  RH  072%=      5-min Rain = 0
KHA2 171218Z 34008KT M03/M08 A3014 RMK A01 T10321075  RH  072%=      5-min Rain = 0
KHA2 171219Z 34008KT M03/M08 A3014 RMK A01 T10321076  RH  072%=      5-min Rain = 0
KHA2 171220Z 34008KT M03/M08 A3014 RMK A01 T10321076  RH  072%=      5-min Rain = 0
KHA2 171221Z 33008KT M03/M08 A3014 RMK A01 T10331076  RH  072%=      5-min Rain = 0
KHA2 171222Z 33008KT M03/M08 A3014 RMK A01 T10331076  RH  072%=      5-min Rain = 0
KHA2 171223Z 33008KT M03/M08 A3014 RMK A01 T10341076  RH  072%=      5-min Rain = 0
KHA2 171224Z 34008KT M04/M08 A3014 RMK A01 T10351077  RH  073%=      5-min Rain = 0
KHA2 171225Z 33008KT M04/M08 A3014 RMK A01 T10351076  RH  073%=      5-min Rain = 0
KHA2 171226Z 33008KT M04/M08 A3014 RMK A01 T10351077  RH  073%=      5-min Rain = 0
KHA2 171227Z 34008KT M04/M08 A3014 RMK A01 T10351076  RH  073%=      5-min Rain = 0
KHA2 171228Z 34008KT M04/M08 A3014 RMK A01 T10351076  RH  073%=      5-min Rain = 0
KHA2 171229Z 33008KT M04/M08 A3014 RMK A01 T10351076  RH  073%=      5-min Rain = 0
KHA2 171230Z 34008KT M04/M08 A3014 RMK A01 T10351076  RH  073%=      5-min Rain = 0
KHA2 171231Z 33008KT M04/M08 A3015 RMK A01 T10351076  RH  073%=      5-min Rain = 0
KHA2 171232Z 33008KT M04/M08 A3015 RMK A01 T10351076  RH  073%=      5-min Rain = 0
KHA2 171233Z 33008KT M04/M08 A3015 RMK A01 T10351076  RH  073%=      5-min Rain = 0
KHA2 171234Z 33008KT M03/M08 A3015 RMK A01 T10341076  RH  073%=      5-min Rain = 0
KHA2 171235Z 33008KT M03/M08 A3015 RMK A01 T10341076  RH  073%=      5-min Rain = 0
KHA2 171236Z 33008KT M03/M08 A3015 RMK A01 T10341076  RH  073%=      5-min Rain = 0
KHA2 171237Z 33008KT M03/M08 A3015 RMK A01 T10341076  RH  073%=      5-min Rain = 0
KHA2 171238Z 33007KT M03/M08 A3015 RMK A01 T10331076  RH  073%=      5-min Rain = 0
KHA2 171239Z 33007KT M03/M08 A3015 RMK A01 T10341076  RH  073%=      5-min Rain = 0
KHA2 171240Z 33008KT M04/M08 A3015 RMK A01 T10351076  RH  073%=      5-min Rain = 0
KHA2 171241Z 33007KT M04/M08 A3015 RMK A01 T10351076  RH  073%=      5-min Rain = 0
KHA2 171242Z 33008KT M04/M08 A3015 RMK A01 T10361076  RH  073%=      5-min Rain = 0
KHA2 171243Z 33007KT M04/M08 A3015 RMK A01 T10361076  RH  074%=      5-min Rain = 0
KHA2 171244Z 33007KT M04/M08 A3015 RMK A01 T10361077  RH  074%=      5-min Rain = 0
KHA2 171245Z 33007KT M04/M08 A3015 RMK A01 T10361077  RH  074%=      5-min Rain = 0
KHA2 171246Z 33007KT M04/M08 A3015 RMK A01 T10361076  RH  074%=      5-min Rain = 0
KHA2 171247Z 33007KT M04/M08 A3015 RMK A01 T10361076  RH  073%=      5-min Rain = 0
KHA2 171248Z 33007KT M04/M08 A3015 RMK A01 T10361077  RH  073%=      5-min Rain = 0
KHA2 171249Z 33007KT M04/M08 A3015 RMK A01 T10361077  RH  073%=      5-min Rain = 0
KHA2 171250Z 33007KT M04/M08 A3015 RMK A01 T10371077  RH  073%=      5-min Rain = 0
KHA2 171251Z 33007KT M04/M08 A3015 RMK A01 T10371077  RH  074%=      5-min Rain = 0
KHA2 171252Z 33007KT M04/M08 A3015 RMK A01 T10381078  RH  074%=      5-min Rain = 0
KHA2 171253Z 33007KT M04/M08 A3015 RMK A01 T10381077  RH  074%=      5-min Rain = 0
KHA2 171254Z 33008KT M04/M08 A3015 RMK A01 T10381077  RH  074%=      5-min Rain = 0
KHA2 171255Z 33007KT M04/M08 A3015 RMK A01 T10381077  RH  074%=      5-min Rain = 0
KHA2 171256Z 33007KT M04/M08 A3015 RMK A01 T10381077  RH  074%=      5-min Rain = 0
KHA2 171257Z 33007KT M04/M08 A3015 RMK A01 T10381078  RH  074%=      5-min Rain = 0
KHA2 171258Z 33007KT M04/M08 A3015 RMK A01 T10391078  RH  074%=      5-min Rain = 0
KHA2 171259Z 33007KT M04/M08 A3015 RMK A01 T10391078  RH  074%=      5-min Rain = 0
KHA2 171300Z 33007KT M04/M08 A3015 RMK A01 T10401078  RH  075%=      5-min Rain = 0
KHA2 171301Z 33007KT M04/M08 A3015 RMK A01 T10401079  RH  075%=      5-min Rain = 0
KHA2 171302Z 33007KT M04/M08 A3015 RMK A01 T10411079  RH  075%=      5-min Rain = 0
KHA2 171303Z 33007KT M04/M08 A3015 RMK A01 T10401078  RH  075%=      5-min Rain = 0
KHA2 171304Z 33007KT M04/M08 A3015 RMK A01 T10411078  RH  075%=      5-min Rain = 0
KHA2 171305Z 33007KT M04/M08 A3015 RMK A01 T10411079  RH  075%=      5-min Rain = 0
KHA2 171306Z 33007KT M04/M08 A3015 RMK A01 T10411079  RH  075%=      5-min Rain = 0
KHA2 171307Z 33006KT M04/M08 A3015 RMK A01 T10411079  RH  075%=      5-min Rain = 0
KHA2 171308Z 33006KT M04/M08 A3015 RMK A01 T10411079  RH  075%=      5-min Rain = 0
KHA2 171309Z 33006KT M04/M08 A3015 RMK A01 T10421079  RH  075%=      5-min Rain = 0
KHA2 171310Z 33007KT M04/M08 A3015 RMK A01 T10421079  RH  075%=      5-min Rain = 0
KHA2 171311Z 33007KT M04/M08 A3015 RMK A01 T10421079  RH  075%=      5-min Rain = 0
KHA2 171312Z 33007KT M04/M08 A3015 RMK A01 T10421079  RH  075%=      5-min Rain = 0
KHA2 171313Z 33007KT M04/M08 A3015 RMK A01 T10411079  RH  075%=      5-min Rain = 0
KHA2 171314Z 33008KT M04/M08 A3015 RMK A01 T10401078  RH  075%=      5-min Rain = 0
KHA2 171315Z 33008KT M04/M08 A3015 RMK A01 T10391078  RH  074%=      5-min Rain = 0
KHA2 171316Z 33008KT M04/M08 A3015 RMK A01 T10391078  RH  074%=      5-min Rain = 0
KHA2 171317Z 33008KT M04/M08 A3015 RMK A01 T10371077  RH  074%=      5-min Rain = 0
KHA2 171318Z 33008KT M04/M08 A3016 RMK A01 T10361077  RH  073%=      5-min Rain = 0
KHA2 171319Z 33008KT M04/M08 A3016 RMK A01 T10361078  RH  073%=      5-min Rain = 0
KHA2 171320Z 33008KT M04/M08 A3015 RMK A01 T10351078  RH  073%=      5-min Rain = 0
KHA2 171321Z 33008KT M04/M08 A3015 RMK A01 T10351077  RH  072%=      5-min Rain = 0
KHA2 171322Z 33008KT M04/M08 A3016 RMK A01 T10351077  RH  072%=      5-min Rain = 0
KHA2 171323Z 33008KT M04/M08 A3016 RMK A01 T10351078  RH  072%=      5-min Rain = 0
KHA2 171324Z 33008KT M03/M08 A3016 RMK A01 T10341078  RH  072%=      5-min Rain = 0
KHA2 171325Z 33008KT M03/M08 A3016 RMK A01 T10331077  RH  072%=      5-min Rain = 0
KHA2 171326Z 33008KT M03/M08 A3016 RMK A01 T10331078  RH  072%=      5-min Rain = 0
KHA2 171327Z 33008KT M03/M08 A3016 RMK A01 T10331078  RH  071%=      5-min Rain = 0
KHA2 171328Z 33009KT M03/M08 A3016 RMK A01 T10331077  RH  071%=      5-min Rain = 0
KHA2 171329Z 33009KT M03/M08 A3016 RMK A01 T10311077  RH  071%=      5-min Rain = 0
KHA2 171330Z 33009KT M03/M08 A3016 RMK A01 T10291076  RH  070%=      5-min Rain = 0
KHA2 171331Z 33009KT M03/M08 A3016 RMK A01 T10281076  RH  069%=      5-min Rain = 0
KHA2 171332Z 33009KT M03/M08 A3016 RMK A01 T10281077  RH  069%=      5-min Rain = 0
KHA2 171333Z 33008KT M03/M08 A3016 RMK A01 T10281077  RH  069%=      5-min Rain = 0
KHA2 171334Z 33008KT M03/M08 A3016 RMK A01 T10281077  RH  069%=      5-min Rain = 0
KHA2 171335Z 33009KT M03/M08 A3016 RMK A01 T10281077  RH  069%=      5-min Rain = 0
KHA2 171336Z 33008KT M03/M08 A3016 RMK A01 T10281077  RH  069%=      5-min Rain = 0
KHA2 171337Z 33008KT M03/M08 A3017 RMK A01 T10281077  RH  069%=      5-min Rain = 0
KHA2 171338Z 33008KT M03/M08 A3017 RMK A01 T10281077  RH  069%=      5-min Rain = 0
KHA2 171339Z 33008KT M03/M08 A3017 RMK A01 T10291078  RH  069%=      5-min Rain = 0
KHA2 171340Z 33008KT M03/M08 A3017 RMK A01 T10301078  RH  069%=      5-min Rain = 0
KHA2 171341Z 33008KT M03/M08 A3017 RMK A01 T10301078  RH  069%=      5-min Rain = 0
KHA2 171342Z 33008KT M03/M08 A3017 RMK A01 T10301078  RH  070%=      5-min Rain = 0
KHA2 171343Z 33008KT M03/M08 A3017 RMK A01 T10301078  RH  070%=      5-min Rain = 0
KHA2 171344Z 33008KT M03/M08 A3017 RMK A01 T10311078  RH  070%=      5-min Rain = 0
KHA2 171345Z 33007KT M03/M08 A3017 RMK A01 T10321078  RH  070%=      5-min Rain = 0
KHA2 171346Z 33007KT M03/M08 A3017 RMK A01 T10321079  RH  070%=      5-min Rain = 0
KHA2 171347Z 33007KT M03/M08 A3017 RMK A01 T10331079  RH  071%=      5-min Rain = 0
KHA2 171348Z 33007KT M03/M08 A3017 RMK A01 T10341078  RH  071%=      5-min Rain = 0
KHA2 171349Z 32007KT M03/M08 A3017 RMK A01 T10341078  RH  071%=      5-min Rain = 0
KHA2 171350Z 32006KT M04/M08 A3017 RMK A01 T10351079  RH  072%=      5-min Rain = 0
KHA2 171351Z 32006KT M04/M08 A3017 RMK A01 T10361079  RH  072%=      5-min Rain = 0
KHA2 171352Z 32006KT M04/M08 A3017 RMK A01 T10371080  RH  072%=      5-min Rain = 0
KHA2 171353Z 32006KT M04/M08 A3017 RMK A01 T10381080  RH  073%=      5-min Rain = 0
KHA2 171354Z 32006KT M04/M08 A3017 RMK A01 T10391080  RH  073%=      5-min Rain = 0
KHA2 171355Z 32006KT M04/M08 A3017 RMK A01 T10391080  RH  074%=      5-min Rain = 0
KHA2 171356Z 32006KT M04/M08 A3017 RMK A01 T10401080  RH  074%=      5-min Rain = 0
KHA2 171357Z 33007KT M04/M08 A3017 RMK A01 T10401080  RH  074%=      5-min Rain = 0
KHA2 171358Z 33007KT M04/M08 A3017 RMK A01 T10401079  RH  074%=      5-min Rain = 0
KHA2 171359Z 33007KT M04/M08 A3017 RMK A01 T10401079  RH  074%=      5-min Rain = 0
KHA2 171400Z 32007KT M04/M08 A3017 RMK A01 T10401079  RH  074%=      5-min Rain = 0
KHA2 171401Z 32007KT M04/M08 A3017 RMK A01 T10401079  RH  074%=      5-min Rain = 0
KHA2 171402Z 33007KT M04/M08 A3017 RMK A01 T10401079  RH  074%=      5-min Rain = 0
KHA2 171403Z 32006KT M04/M08 A3017 RMK A01 T10401079  RH  074%=      5-min Rain = 0
KHA2 171404Z 32006KT M04/M08 A3017 RMK A01 T10411079  RH  074%=      5-min Rain = 0
KHA2 171405Z 32006KT M04/M08 A3017 RMK A01 T10411079  RH  075%=      5-min Rain = 0
KHA2 171406Z 32006KT M04/M08 A3017 RMK A01 T10411079  RH  075%=      5-min Rain = 0
KHA2 171407Z 32006KT M04/M08 A3017 RMK A01 T10411079  RH  075%=      5-min Rain = 0
KHA2 171408Z 32006KT M04/M08 A3017 RMK A01 T10401079  RH  075%=      5-min Rain = 0
KHA2 171409Z 32006KT M04/M08 A3017 RMK A01 T10401078  RH  075%=      5-min Rain = 0
KHA2 171410Z 32006KT M04/M08 A3017 RMK A01 T10391078  RH  075%=      5-min Rain = 0
KHA2 171411Z 32006KT M04/M08 A3017 RMK A01 T10391078  RH  074%=      5-min Rain = 0
KHA2 171412Z 32006KT M04/M08 A3017 RMK A01 T10401078  RH  074%=      5-min Rain = 0
KHA2 171413Z 31006KT M04/M08 A3017 RMK A01 T10391078  RH  074%=      5-min Rain = 0
KHA2 171414Z 31006KT M04/M08 A3017 RMK A01 T10381078  RH  074%=      5-min Rain = 0
KHA2 171415Z 31006KT M04/M08 A3017 RMK A01 T10381078  RH  074%=      5-min Rain = 0
KHA2 171416Z 32007KT M04/M08 A3017 RMK A01 T10381078  RH  074%=      5-min Rain = 0
KHA2 171417Z 32006KT M04/M08 A3017 RMK A01 T10381078  RH  074%=      5-min Rain = 0
KHA2 171418Z 32006KT M04/M08 A3017 RMK A01 T10371077  RH  074%=      5-min Rain = 0
KHA2 171419Z 32007KT M04/M08 A3017 RMK A01 T10361077  RH  074%=      5-min Rain = 0
KHA2 171420Z 32006KT M04/M08 A3017 RMK A01 T10361076  RH  073%=      5-min Rain = 0
KHA2 171421Z 32006KT M04/M08 A3017 RMK A01 T10351076  RH  073%=      5-min Rain = 0
KHA2 171422Z 32006KT M04/M08 A3017 RMK A01 T10351076  RH  073%=      5-min Rain = 0
KHA2 171423Z 32006KT M04/M08 A3017 RMK A01 T10351076  RH  073%=      5-min Rain = 0
KHA2 171424Z 32006KT M03/M08 A3017 RMK A01 T10341076  RH  073%=      5-min Rain = 0
KHA2 171425Z 32006KT M03/M08 A3017 RMK A01 T10331075  RH  073%=      5-min Rain = 0
KHA2 171426Z 31005KT M03/M08 A3017 RMK A01 T10331075  RH  073%=      5-min Rain = 0
KHA2 171427Z 32005KT M03/M08 A3017 RMK A01 T10321075  RH  072%=      5-min Rain = 0
KHA2 171428Z 31005KT M03/M08 A3017 RMK A01 T10321075  RH  072%=      5-min Rain = 0
KHA2 171429Z 31005KT M03/M07 A3017 RMK A01 T10311074  RH  072%=      5-min Rain = 0
KHA2 171430Z 31005KT M03/M07 A3017 RMK A01 T10311074  RH  072%=      5-min Rain = 0
KHA2 171431Z 31005KT M03/M07 A3017 RMK A01 T10301074  RH  072%=      5-min Rain = 0
KHA2 171432Z 31005KT M03/M07 A3017 RMK A01 T10301074  RH  072%=      5-min Rain = 0
KHA2 171433Z 31005KT M03/M07 A3017 RMK A01 T10301073  RH  072%=      5-min Rain = 0
KHA2 171434Z 32006KT M03/M07 A3017 RMK A01 T10291073  RH  072%=      5-min Rain = 0
KHA2 171435Z 32006KT M03/M07 A3017 RMK A01 T10291072  RH  072%=      5-min Rain = 0
KHA2 171436Z 32006KT M03/M07 A3017 RMK A01 T10291072  RH  072%=      5-min Rain = 0
KHA2 171437Z 31006KT M03/M07 A3017 RMK A01 T10281071  RH  072%=      5-min Rain = 0
KHA2 171438Z 31005KT M03/M07 A3017 RMK A01 T10271071  RH  071%=      5-min Rain = 0
KHA2 171439Z 31005KT M03/M07 A3017 RMK A01 T10251071  RH  071%=      5-min Rain = 0
KHA2 171440Z 31005KT M03/M07 A3017 RMK A01 T10251071  RH  071%=      5-min Rain = 0
KHA2 171441Z 32006KT M02/M07 A3017 RMK A01 T10241070  RH  070%=      5-min Rain = 0
KHA2 171442Z 32006KT M02/M07 A3017 RMK A01 T10231070  RH  070%=      5-min Rain = 0
KHA2 171443Z 32006KT M02/M07 A3017 RMK A01 T10231070  RH  070%=      5-min Rain = 0
KHA2 171444Z 32007KT M02/M07 A3017 RMK A01 T10231070  RH  070%=      5-min Rain = 0
KHA2 171445Z 32007KT M02/M07 A3018 RMK A01 T10231070  RH  070%=      5-min Rain = 0
KHA2 171446Z 32007KT M02/M07 A3018 RMK A01 T10231071  RH  070%=      5-min Rain = 0
KHA2 171447Z 32008KT M02/M07 A3018 RMK A01 T10231071  RH  070%=      5-min Rain = 0
KHA2 171448Z 32008KT M02/M07 A3018 RMK A01 T10241071  RH  070%=      5-min Rain = 0
KHA2 171449Z 32008KT M02/M07 A3018 RMK A01 T10241071  RH  070%=      5-min Rain = 0
KHA2 171450Z 32008KT M03/M07 A3018 RMK A01 T10251071  RH  071%=      5-min Rain = 0
KHA2 171451Z 32008KT M03/M07 A3018 RMK A01 T10261071  RH  071%=      5-min Rain = 0
KHA2 171452Z 33008KT M03/M07 A3019 RMK A01 T10261070  RH  072%=      5-min Rain = 0
KHA2 171453Z 33007KT M03/M07 A3019 RMK A01 T10261070  RH  072%=      5-min Rain = 0
KHA2 171454Z 33007KT M03/M07 A3019 RMK A01 T10251069  RH  072%=      5-min Rain = 0
KHA2 171455Z 33007KT M02/M07 A3019 RMK A01 T10231068  RH  071%=      5-min Rain = 0
KHA2 171456Z 33007KT M02/M07 A3019 RMK A01 T10221068  RH  071%=      5-min Rain = 0
KHA2 171457Z 33007KT M02/M07 A3019 RMK A01 T10221068  RH  071%=      5-min Rain = 0
KHA2 171458Z 33007KT M02/M07 A3019 RMK A01 T10211067  RH  070%=      5-min Rain = 0
KHA2 171459Z 33007KT M02/M07 A3019 RMK A01 T10201067  RH  070%=      5-min Rain = 0
KHA2 171500Z 33008KT M02/M07 A3019 RMK A01 T10181067  RH  070%=      5-min Rain = 0
KHA2 171501Z 33007KT M02/M07 A3019 RMK A01 T10171066  RH  069%=      5-min Rain = 0
KHA2 171502Z 33007KT M02/M07 A3019 RMK A01 T10161065  RH  069%=      5-min Rain = 0
KHA2 171503Z 33007KT M02/M07 A3018 RMK A01 T10151065  RH  069%=      5-min Rain = 0
KHA2 171504Z 33007KT M01/M07 A3018 RMK A01 T10141065  RH  068%=      5-min Rain = 0
KHA2 171505Z 32007KT M01/M07 A3018 RMK A01 T10131065  RH  068%=      5-min Rain = 0
KHA2 171506Z 33007KT M01/M06 A3018 RMK A01 T10121064  RH  067%=      5-min Rain = 0
KHA2 171507Z 33007KT M01/M06 A3018 RMK A01 T10111063  RH  067%=      5-min Rain = 0
KHA2 171508Z 32006KT M01/M06 A3018 RMK A01 T10101064  RH  067%=      5-min Rain = 0
KHA2 171509Z 33007KT M01/M06 A3018 RMK A01 T10091062  RH  067%=      5-min Rain = 0
KHA2 171510Z 33006KT M01/M06 A3018 RMK A01 T10081060  RH  068%=      5-min Rain = 0
KHA2 171511Z 33006KT M01/M06 A3018 RMK A01 T10081060  RH  068%=      5-min Rain = 0
KHA2 171512Z 33006KT M01/M06 A3018 RMK A01 T10071059  RH  068%=      5-min Rain = 0
KHA2 171513Z 33006KT M01/M06 A3018 RMK A01 T10061058  RH  068%=      5-min Rain = 0
KHA2 171514Z 34005KT M01/M06 A3018 RMK A01 T10051058  RH  067%=      5-min Rain = 0
KHA2 171515Z 34005KT M01/M06 A3018 RMK A01 T10051058  RH  067%=      5-min Rain = 0
KHA2 171516Z 34005KT M00/M06 A3018 RMK A01 T10041056  RH  068%=      5-min Rain = 0
KHA2 171517Z 34005KT M00/M05 A3019 RMK A01 T10021054  RH  068%=      5-min Rain = 0
KHA2 171518Z 34005KT 00/05 A3019 RMK A01 T00-00-53  RH  067%=      5-min Rain = 0
KHA2 171519Z 34006KT 00/M05 A3019 RMK A01 T00011053  RH  067%=      5-min Rain = 0
KHA2 171520Z 34006KT 00/M06 A3019 RMK A01 T00021055  RH  066%=      5-min Rain = 0
KHA2 171521Z 34006KT 00/M06 A3019 RMK A01 T00031056  RH  065%=      5-min Rain = 0
KHA2 171522Z 34006KT 00/M06 A3019 RMK A01 T00041056  RH  064%=      5-min Rain = 0
KHA2 171523Z 34007KT 01/M06 A3019 RMK A01 T00051056  RH  063%=      5-min Rain = 0
KHA2 171524Z 34006KT 01/M06 A3019 RMK A01 T00061056  RH  063%=      5-min Rain = 0
KHA2 171525Z 34007KT 01/M06 A3019 RMK A01 T00061055  RH  064%=      5-min Rain = 0
KHA2 171526Z 34007KT 01/M06 A3019 RMK A01 T00071056  RH  063%=      5-min Rain = 0
KHA2 171527Z 34007KT 01/M05 A3019 RMK A01 T00091053  RH  063%=      5-min Rain = 0
KHA2 171528Z 34007KT 01/M05 A3019 RMK A01 T00101054  RH  062%=      5-min Rain = 0
KHA2 171529Z 34007KT 01/M05 A3019 RMK A01 T00111054  RH  062%=      5-min Rain = 0
KHA2 171530Z 34007KT 01/M06 A3019 RMK A01 T00121055  RH  061%=      5-min Rain = 0
KHA2 171531Z 34006KT 01/M05 A3019 RMK A01 T00131054  RH  061%=      5-min Rain = 0
KHA2 171532Z 34006KT 02/M05 A3019 RMK A01 T00151053  RH  061%=      5-min Rain = 0
KHA2 171533Z 34006KT 02/M05 A3019 RMK A01 T00161053  RH  060%=      5-min Rain = 0
KHA2 171534Z 34007KT 02/M05 A3019 RMK A01 T00161052  RH  060%=      5-min Rain = 0
KHA2 171535Z 34008KT 02/M05 A3019 RMK A01 T00171054  RH  059%=      5-min Rain = 0
KHA2 171536Z 34007KT 02/M06 A3019 RMK A01 T00171056  RH  058%=      5-min Rain = 0
KHA2 171537Z 35008KT 02/M06 A3019 RMK A01 T00171055  RH  059%=      5-min Rain = 0
KHA2 171538Z 35006KT 02/M05 A3019 RMK A01 T00171054  RH  059%=      5-min Rain = 0
KHA2 171539Z 35007KT 02/M05 A3019 RMK A01 T00181053  RH  060%=      5-min Rain = 0
KHA2 171540Z 35007KT 02/M05 A3019 RMK A01 T00181053  RH  059%=      5-min Rain = 0
KHA2 171541Z 00007KT 02/M05 A3019 RMK A01 T00191053  RH  059%=      5-min Rain = 0
KHA2 171542Z 35007KT 02/M05 A3019 RMK A01 T00201052  RH  059%=      5-min Rain = 0
KHA2 171543Z 36007KT 02/M05 A3019 RMK A01 T00211052  RH  059%=      5-min Rain = 0
KHA2 171544Z 01007KT 02/M05 A3019 RMK A01 T00211052  RH  059%=      5-min Rain = 0
KHA2 171545Z 36008KT 02/M05 A3019 RMK A01 T00221050  RH  059%=      5-min Rain = 0
KHA2 171546Z 00010KT 02/M05 A3019 RMK A01 T00231051  RH  058%=      5-min Rain = 0
KHA2 171547Z 01009KT 02/M05 A3019 RMK A01 T00241051  RH  058%=      5-min Rain = 0
KHA2 171548Z 00007KT 03/M05 A3019 RMK A01 T00251051  RH  058%=      5-min Rain = 0
KHA2 171549Z 00008KT 03/M05 A3019 RMK A01 T00251050  RH  057%=      5-min Rain = 0
KHA2 171550Z 00010KT 03/M05 A3019 RMK A01 T00261051  RH  057%=      5-min Rain = 0
KHA2 171551Z 01008KT 03/M05 A3019 RMK A01 T00261049  RH  058%=      5-min Rain = 0
KHA2 171552Z 00010KT 03/M05 A3019 RMK A01 T00281048  RH  057%=      5-min Rain = 0
KHA2 171553Z 01010KT 03/M05 A3019 RMK A01 T00281049  RH  057%=      5-min Rain = 0
KHA2 171554Z 02009KT 03/M05 A3019 RMK A01 T00291050  RH  056%=      5-min Rain = 0
KHA2 171555Z 01009KT 03/M05 A3019 RMK A01 T00291048  RH  057%=      5-min Rain = 0
KHA2 171556Z 01008KT 03/M05 A3019 RMK A01 T00291049  RH  057%=      5-min Rain = 0
KHA2 171557Z 02010KT 03/M05 A3019 RMK A01 T00301048  RH  057%=      5-min Rain = 0
KHA2 171558Z 02009KT 03/M05 A3019 RMK A01 T00311048  RH  056%=      5-min Rain = 0
KHA2 171559Z 03010KT 03/M05 A302 RMK A01 T00321047  RH  056%=      5-min Rain = 0
KHA2 171600Z 02009KT 03/M05 A302 RMK A01 T00341048  RH  055%=      5-min Rain = 0
KHA2 171601Z 02010KT 04/M05 A302 RMK A01 T00351046  RH  056%=      5-min Rain = 0
KHA2 171602Z 02010KT 04/M05 A302 RMK A01 T00361047  RH  055%=      5-min Rain = 0
KHA2 171603Z 01011KT 04/M05 A302 RMK A01 T00371048  RH  054%=      5-min Rain = 0
KHA2 171604Z 02010KT 04/M05 A302 RMK A01 T00361048  RH  054%=      5-min Rain = 0
KHA2 171605Z 01010KT 04/M05 A302 RMK A01 T00361048  RH  054%=      5-min Rain = 0
KHA2 171606Z 02009KT 04/M05 A302 RMK A01 T00371047  RH  054%=      5-min Rain = 0
KHA2 171607Z 02011KT 04/M05 A302 RMK A01 T00371047  RH  054%=      5-min Rain = 0
KHA2 171608Z 02011KT 04/M05 A302 RMK A01 T00361049  RH  053%=      5-min Rain = 0
KHA2 171609Z 02011KT 04/M05 A302 RMK A01 T00351049  RH  054%=      5-min Rain = 0
KHA2 171610Z 01012KT 04/M05 A302 RMK A01 T00361049  RH  054%=      5-min Rain = 0
KHA2 171611Z 02011KT 04/M05 A302 RMK A01 T00361049  RH  054%=      5-min Rain = 0
KHA2 171612Z 03012KT 04/M05 A302 RMK A01 T00381049  RH  053%=      5-min Rain = 0
KHA2 171613Z 03011KT 04/M05 A302 RMK A01 T00381049  RH  053%=      5-min Rain = 0
KHA2 171614Z 03009KT 04/M05 A302 RMK A01 T00381048  RH  053%=      5-min Rain = 0
KHA2 171615Z 02010KT 04/M05 A302 RMK A01 T00391048  RH  053%=      5-min Rain = 0
KHA2 171616Z 02009KT 04/M05 A302 RMK A01 T00391048  RH  053%=      5-min Rain = 0
KHA2 171617Z 03010KT 04/M05 A302 RMK A01 T00391049  RH  053%=      5-min Rain = 0
KHA2 171618Z 02009KT 04/M05 A302 RMK A01 T00391049  RH  053%=      5-min Rain = 0
KHA2 171619Z 02009KT 04/M05 A302 RMK A01 T00391050  RH  053%=      5-min Rain = 0
KHA2 171620Z 01009KT 04/M05 A302 RMK A01 T00391050  RH  053%=      5-min Rain = 0
KHA2 171621Z 02010KT 04/M05 A302 RMK A01 T00391051  RH  052%=      5-min Rain = 0
KHA2 171622Z 02010KT 04/M05 A302 RMK A01 T00391052  RH  052%=      5-min Rain = 0
KHA2 171623Z 02008KT 04/M05 A302 RMK A01 T00391049  RH  053%=      5-min Rain = 0
KHA2 171624Z 02009KT 04/M05 A302 RMK A01 T00421046  RH  053%=      5-min Rain = 0
KHA2 171625Z 02009KT 04/M05 A302 RMK A01 T00431048  RH  052%=      5-min Rain = 0
KHA2 171626Z 02009KT 04/M05 A302 RMK A01 T00421050  RH  051%=      5-min Rain = 0
KHA2 171627Z 02010KT 04/M05 A302 RMK A01 T00431048  RH  052%=      5-min Rain = 0
KHA2 171628Z 02009KT 04/M05 A302 RMK A01 T00441049  RH  051%=      5-min Rain = 0
KHA2 171629Z 02008KT 04/M05 A3021 RMK A01 T00431049  RH  051%=      5-min Rain = 0
KHA2 171630Z 02009KT 04/M05 A3021 RMK A01 T00431047  RH  052%=      5-min Rain = 0
KHA2 171631Z 02009KT 04/M05 A3021 RMK A01 T00421047  RH  052%=      5-min Rain = 0
KHA2 171632Z 02010KT 04/M05 A3021 RMK A01 T00441046  RH  052%=      5-min Rain = 0
KHA2 171633Z 02009KT 04/M05 A3021 RMK A01 T00441045  RH  052%=      5-min Rain = 0
KHA2 171634Z 03009KT 05/M04 A3021 RMK A01 T00451044  RH  052%=      5-min Rain = 0
KHA2 171635Z 03008KT 05/M04 A3021 RMK A01 T00461044  RH  052%=      5-min Rain = 0
KHA2 171636Z 03008KT 05/M05 A3021 RMK A01 T00451046  RH  052%=      5-min Rain = 0
KHA2 171637Z 02010KT 05/M05 A3021 RMK A01 T00461048  RH  051%=      5-min Rain = 0
KHA2 171638Z 03010KT 05/M05 A3021 RMK A01 T00471048  RH  050%=      5-min Rain = 0
KHA2 171639Z 02009KT 05/M05 A3021 RMK A01 T00471049  RH  050%=      5-min Rain = 0
KHA2 171640Z 02009KT 05/M05 A3021 RMK A01 T00461048  RH  051%=      5-min Rain = 0
KHA2 171641Z 02009KT 05/M05 A3021 RMK A01 T00481046  RH  051%=      5-min Rain = 0
KHA2 171642Z 03010KT 05/M05 A3021 RMK A01 T00491047  RH  050%=      5-min Rain = 0
KHA2 171643Z 02010KT 05/M05 A3021 RMK A01 T00511049  RH  048%=      5-min Rain = 0
KHA2 171644Z 03008KT 05/M05 A3021 RMK A01 T00511050  RH  048%=      5-min Rain = 0
KHA2 171645Z 03008KT 05/M05 A3021 RMK A01 T00511049  RH  048%=      5-min Rain = 0
KHA2 171646Z 02010KT 05/M05 A3021 RMK A01 T00511050  RH  048%=      5-min Rain = 0
KHA2 171647Z 03011KT 05/M05 A3021 RMK A01 T00521051  RH  048%=      5-min Rain = 0
KHA2 171648Z 02010KT 05/M05 A3021 RMK A01 T00511052  RH  047%=      5-min Rain = 0
KHA2 171649Z 03009KT 05/M05 A3021 RMK A01 T00501050  RH  048%=      5-min Rain = 0
KHA2 171650Z 03010KT 05/M05 A3021 RMK A01 T00511051  RH  048%=      5-min Rain = 0
KHA2 171651Z 04009KT 05/M05 A3021 RMK A01 T00521052  RH  047%=      5-min Rain = 0
KHA2 171652Z 04009KT 05/M05 A3021 RMK A01 T00521052  RH  047%=      5-min Rain = 0
KHA2 171653Z 04010KT 05/M05 A3021 RMK A01 T00531051  RH  047%=      5-min Rain = 0
KHA2 171654Z 04008KT 05/M05 A3021 RMK A01 T00531050  RH  047%=      5-min Rain = 0
KHA2 171655Z 03009KT 05/M05 A3021 RMK A01 T00541050  RH  047%=      5-min Rain = 0
KHA2 171656Z 02009KT 05/M05 A3021 RMK A01 T00541050  RH  047%=      5-min Rain = 0
KHA2 171657Z 02011KT 05/M05 A3021 RMK A01 T00541052  RH  047%=      5-min Rain = 0
KHA2 171658Z 02011KT 05/M06 A3021 RMK A01 T00541055  RH  045%=      5-min Rain = 0
KHA2 171659Z 02011KT 05/M06 A3021 RMK A01 T00531056  RH  045%=      5-min Rain = 0
KHA2 171700Z 03011KT 05/M06 A3021 RMK A01 T00531056  RH  045%=      5-min Rain = 0
KHA2 171701Z 03010KT 05/M05 A3021 RMK A01 T00541054  RH  046%=      5-min Rain = 0
KHA2 171702Z 03009KT 05/M05 A3021 RMK A01 T00541053  RH  046%=      5-min Rain = 0
KHA2 171703Z 01010KT 05/M05 A3021 RMK A01 T00541053  RH  046%=      5-min Rain = 0
KHA2 171704Z 01008KT 06/M05 A3021 RMK A01 T00551051  RH  046%=      5-min Rain = 0
KHA2 171705Z 01008KT 06/M05 A3021 RMK A01 T00581049  RH  046%=      5-min Rain = 0
KHA2 171706Z 01008KT 06/M05 A3021 RMK A01 T00581050  RH  046%=      5-min Rain = 0
KHA2 171707Z 02006KT 06/M05 A3021 RMK A01 T00581051  RH  045%=      5-min Rain = 0
KHA2 171708Z 03008KT 06/M05 A3021 RMK A01 T00571051  RH  046%=      5-min Rain = 0
KHA2 171709Z 04010KT 06/M05 A3021 RMK A01 T00571053  RH  045%=      5-min Rain = 0
KHA2 171710Z 04009KT 06/M06 A3021 RMK A01 T00581056  RH  044%=      5-min Rain = 0
KHA2 171711Z 05010KT 06/M06 A3021 RMK A01 T00601055  RH  043%=      5-min Rain = 0
KHA2 171712Z 06008KT 06/M06 A3021 RMK A01 T00631055  RH  043%=      5-min Rain = 0
KHA2 171713Z 05007KT 06/M06 A3021 RMK A01 T00631057  RH  042%=      5-min Rain = 0
KHA2 171714Z 03007KT 06/M06 A3021 RMK A01 T00631055  RH  043%=      5-min Rain = 0
KHA2 171715Z 04008KT 06/M06 A3021 RMK A01 T00641055  RH  042%=      5-min Rain = 0
KHA2 171716Z 02010KT 06/M06 A3021 RMK A01 T00641056  RH  042%=      5-min Rain = 0
KHA2 171717Z 03008KT 06/M06 A3021 RMK A01 T00631058  RH  042%=      5-min Rain = 0
KHA2 171718Z 03008KT 06/M06 A3021 RMK A01 T00611060  RH  041%=      5-min Rain = 0
KHA2 171719Z 02009KT 06/M06 A3021 RMK A01 T00621058  RH  042%=      5-min Rain = 0
KHA2 171720Z 01008KT 06/M06 A3021 RMK A01 T00631061  RH  041%=      5-min Rain = 0
KHA2 171721Z 03009KT 06/M06 A3021 RMK A01 T00631060  RH  041%=      5-min Rain = 0
KHA2 171722Z 04007KT 06/M06 A3021 RMK A01 T00631059  RH  041%=      5-min Rain = 0
KHA2 171723Z 05007KT 06/M06 A3021 RMK A01 T00621059  RH  042%=      5-min Rain = 0
KHA2 171724Z 04007KT 06/M06 A3021 RMK A01 T00621059  RH  042%=      5-min Rain = 0
KHA2 171725Z 03007KT 06/M06 A302 RMK A01 T00621059  RH  042%=      5-min Rain = 0
KHA2 171726Z 03006KT 06/M06 A302 RMK A01 T00611061  RH  041%=      5-min Rain = 0
KHA2 171727Z 01007KT 06/M06 A302 RMK A01 T00631058  RH  042%=      5-min Rain = 0
KHA2 171728Z 01007KT 06/M06 A302 RMK A01 T00641058  RH  041%=      5-min Rain = 0
KHA2 171729Z 02007KT 07/M06 A302 RMK A01 T00651056  RH  041%=      5-min Rain = 0
KHA2 171730Z 03009KT 07/M06 A302 RMK A01 T00671056  RH  041%=      5-min Rain = 0
KHA2 171731Z 02009KT 07/M06 A302 RMK A01 T00671059  RH  040%=      5-min Rain = 0
KHA2 171732Z 02008KT 07/M06 A302 RMK A01 T00651062  RH  040%=      5-min Rain = 0
KHA2 171733Z 04007KT 07/M06 A302 RMK A01 T00651060  RH  040%=      5-min Rain = 0
KHA2 171734Z 03007KT 07/M06 A302 RMK A01 T00651061  RH  040%=      5-min Rain = 0
KHA2 171735Z 03006KT 07/M06 A302 RMK A01 T00651061  RH  040%=      5-min Rain = 0
KHA2 171736Z 04008KT 07/M06 A302 RMK A01 T00651061  RH  040%=      5-min Rain = 0
KHA2 171737Z 03008KT 07/M06 A302 RMK A01 T00661060  RH  040%=      5-min Rain = 0
KHA2 171738Z 02006KT 07/M06 A302 RMK A01 T00691059  RH  040%=      5-min Rain = 0
KHA2 171739Z 02005KT 07/M06 A302 RMK A01 T00691063  RH  038%=      5-min Rain = 0
KHA2 171740Z 04008KT 07/M06 A302 RMK A01 T00691063  RH  039%=      5-min Rain = 0
KHA2 171741Z 06006KT 07/M06 A3019 RMK A01 T00691064  RH  038%=      5-min Rain = 0
KHA2 171742Z 04008KT 07/M06 A3019 RMK A01 T00691064  RH  038%=      5-min Rain = 0
KHA2 171743Z 05007KT 07/M07 A3019 RMK A01 T00681065  RH  038%=      5-min Rain = 0
KHA2 171744Z 05006KT 07/M07 A3019 RMK A01 T00681066  RH  038%=      5-min Rain = 0
KHA2 171745Z 05007KT 07/M06 A3019 RMK A01 T00691064  RH  038%=      5-min Rain = 0
KHA2 171746Z 04007KT 07/M06 A3019 RMK A01 T00701063  RH  038%=      5-min Rain = 0
KHA2 171747Z 02006KT 07/M06 A3019 RMK A01 T00711061  RH  038%=      5-min Rain = 0
KHA2 171748Z 04007KT 07/M06 A3019 RMK A01 T00731060  RH  038%=      5-min Rain = 0
KHA2 171749Z 05007KT 07/M06 A3019 RMK A01 T00741063  RH  037%=      5-min Rain = 0
KHA2 171750Z 06006KT 07/M07 A3019 RMK A01 T00721068  RH  036%=      5-min Rain = 0
KHA2 171751Z 04005KT 07/M07 A3018 RMK A01 T00691069  RH  037%=      5-min Rain = 0
KHA2 171752Z 05004KT 07/M07 A3018 RMK A01 T00681066  RH  038%=      5-min Rain = 0
KHA2 171753Z 02002KT 07/M07 A3018 RMK A01 T00671066  RH  038%=      5-min Rain = 0
KHA2 171754Z 02005KT 07/M06 A3018 RMK A01 T00701060  RH  039%=      5-min Rain = 0
KHA2 171755Z 01006KT 07/M06 A3018 RMK A01 T00741059  RH  038%=      5-min Rain = 0
KHA2 171756Z 35006KT 08/M06 A3018 RMK A01 T00761064  RH  036%=      5-min Rain = 0
KHA2 171757Z 01006KT 08/M06 A3018 RMK A01 T00751063  RH  037%=      5-min Rain = 0
KHA2 171758Z 03007KT 08/M06 A3018 RMK A01 T00751063  RH  037%=      5-min Rain = 0
KHA2 171759Z 05004KT 07/M06 A3018 RMK A01 T00741062  RH  037%=      5-min Rain = 0
KHA2 171800Z 07005KT 08/M06 A3018 RMK A01 T00761062  RH  037%=      5-min Rain = 0
KHA2 171801Z 07006KT 08/M06 A3017 RMK A01 T00771062  RH  037%=      5-min Rain = 0
KHA2 171802Z 07004KT 08/M07 A3017 RMK A01 T00761065  RH  036%=      5-min Rain = 0
KHA2 171803Z 07002KT 08/M07 A3017 RMK A01 T00751066  RH  036%=      5-min Rain = 0
KHA2 171804Z 10000KT 07/M07 A3017 RMK A01 T00731068  RH  036%=      5-min Rain = 0
KHA2 171805Z 00000KT 07/M07 A3017 RMK A01 T00731067  RH  036%=      5-min Rain = 0
KHA2 171806Z 03001KT 08/M07 A3017 RMK A01 T00751065  RH  036%=      5-min Rain = 0
KHA2 171807Z 04005KT 08/M07 A3017 RMK A01 T00761065  RH  036%=      5-min Rain = 0
KHA2 171808Z 05005KT 08/M07 A3017 RMK A01 T00761069  RH  035%=      5-min Rain = 0
KHA2 171809Z 05005KT 08/M07 A3017 RMK A01 T00751069  RH  035%=      5-min Rain = 0
KHA2 171810Z 07003KT 08/M07 A3017 RMK A01 T00751067  RH  036%=      5-min Rain = 0
KHA2 171811Z 04004KT 08/M07 A3017 RMK A01 T00761067  RH  036%=      5-min Rain = 0
KHA2 171812Z 03006KT 08/M07 A3016 RMK A01 T00771065  RH  036%=      5-min Rain = 0
KHA2 171813Z 04003KT 08/M07 A3016 RMK A01 T00771068  RH  035%=      5-min Rain = 0
KHA2 171814Z 05004KT 08/M07 A3016 RMK A01 T00751068  RH  035%=      5-min Rain = 0
KHA2 171815Z 35005KT 08/M06 A3016 RMK A01 T00781064  RH  036%=      5-min Rain = 0
KHA2 171816Z 35005KT 08/M07 A3016 RMK A01 T00791065  RH  035%=      5-min Rain = 0
KHA2 171817Z 34003KT 08/M07 A3016 RMK A01 T00791066  RH  035%=      5-min Rain = 0
KHA2 171818Z 01002KT 08/M07 A3016 RMK A01 T00781070  RH  034%=      5-min Rain = 0
KHA2 171819Z 02005KT 08/M07 A3016 RMK A01 T00771070  RH  034%=      5-min Rain = 0
KHA2 171820Z 03005KT 08/M07 A3016 RMK A01 T00761071  RH  034%=      5-min Rain = 0
KHA2 171821Z 03005KT 08/M07 A3016 RMK A01 T00751072  RH  034%=      5-min Rain = 0
KHA2 171822Z 02003KT 07/M07 A3016 RMK A01 T00741073  RH  034%=      5-min Rain = 0
KHA2 171823Z 03003KT 07/M07 A3015 RMK A01 T00741071  RH  035%=      5-min Rain = 0
KHA2 171824Z 02004KT 08/M07 A3015 RMK A01 T00761069  RH  035%=      5-min Rain = 0
KHA2 171825Z 00003KT 08/M07 A3015 RMK A01 T00771069  RH  035%=      5-min Rain = 0
KHA2 171826Z 34003KT 08/M07 A3015 RMK A01 T00761069  RH  035%=      5-min Rain = 0
KHA2 171827Z 32002KT 08/M07 A3015 RMK A01 T00761069  RH  035%=      5-min Rain = 0
KHA2 171828Z 02004KT 08/M07 A3015 RMK A01 T00761069  RH  035%=      5-min Rain = 0
KHA2 171829Z 01003KT 08/M07 A3015 RMK A01 T00761071  RH  034%=      5-min Rain = 0
KHA2 171830Z 01004KT 08/M07 A3015 RMK A01 T00761070  RH  035%=      5-min Rain = 0
KHA2 171831Z 02002KT 08/M07 A3015 RMK A01 T00771069  RH  035%=      5-min Rain = 0
KHA2 171832Z 02002KT 08/M07 A3015 RMK A01 T00771071  RH  034%=      5-min Rain = 0
KHA2 171833Z 33002KT 08/M07 A3015 RMK A01 T00771071  RH  034%=      5-min Rain = 0
KHA2 171834Z 32005KT 08/M07 A3015 RMK A01 T00781067  RH  035%=      5-min Rain = 0
KHA2 171835Z 33004KT 08/M07 A3015 RMK A01 T00791068  RH  035%=      5-min Rain = 0
KHA2 171836Z 31005KT 08/M07 A3014 RMK A01 T00791068  RH  034%=      5-min Rain = 0
KHA2 171837Z 31005KT 08/M07 A3014 RMK A01 T00801071  RH  034%=      5-min Rain = 0
KHA2 171838Z 31003KT 08/M07 A3014 RMK A01 T00791073  RH  033%=      5-min Rain = 0
KHA2 171839Z 30003KT 08/M07 A3014 RMK A01 T00791072  RH  033%=      5-min Rain = 0
KHA2 171840Z 36006KT 08/M07 A3014 RMK A01 T00801069  RH  034%=      5-min Rain = 0
KHA2 171841Z 36005KT 08/M07 A3014 RMK A01 T00811069  RH  034%=      5-min Rain = 0
KHA2 171842Z 36005KT 08/M07 A3014 RMK A01 T00801070  RH  034%=      5-min Rain = 0
KHA2 171843Z 35004KT 08/M07 A3014 RMK A01 T00801071  RH  034%=      5-min Rain = 0
KHA2 171844Z 32002KT 08/M07 A3014 RMK A01 T00791072  RH  033%=      5-min Rain = 0
KHA2 171845Z 32002KT 08/M07 A3014 RMK A01 T00791072  RH  034%=      5-min Rain = 0
KHA2 171846Z 29001KT 08/M07 A3014 RMK A01 T00801071  RH  034%=      5-min Rain = 0
KHA2 171847Z 31002KT 08/M07 A3014 RMK A01 T00801070  RH  034%=      5-min Rain = 0
KHA2 171848Z 32003KT 08/M07 A3013 RMK A01 T00811071  RH  033%=      5-min Rain = 0
KHA2 171849Z 31001KT 08/M07 A3013 RMK A01 T00811073  RH  033%=      5-min Rain = 0
KHA2 171850Z 30002KT 08/M07 A3013 RMK A01 T00811073  RH  033%=      5-min Rain = 0
KHA2 171851Z 34003KT 08/M07 A3013 RMK A01 T00821072  RH  033%=      5-min Rain = 0
KHA2 171852Z 35003KT 08/M07 A3013 RMK A01 T00821073  RH  033%=      5-min Rain = 0
KHA2 171853Z 34002KT 08/M07 A3013 RMK A01 T00801074  RH  033%=      5-min Rain = 0
KHA2 171854Z 02000KT 08/M07 A3013 RMK A01 T00801073  RH  033%=      5-min Rain = 0
KHA2 171855Z 00000KT 08/M07 A3013 RMK A01 T00821073  RH  033%=      5-min Rain = 0
KHA2 171856Z 00000KT 08/M07 A3013 RMK A01 T00841071  RH  033%=      5-min Rain = 0
KHA2 171857Z 00000KT 09/M07 A3013 RMK A01 T00851072  RH  032%=      5-min Rain = 0
KHA2 171858Z 00000KT 08/M07 A3013 RMK A01 T00841074  RH  032%=      5-min Rain = 0
KHA2 171859Z 00000KT 08/M07 A3013 RMK A01 T00831074  RH  032%=      5-min Rain = 0
KHA2 171900Z 05005KT 08/M07 A3013 RMK A01 T00831073  RH  032%=      5-min Rain = 0
KHA2 171901Z 04004KT 08/M07 A3013 RMK A01 T00831072  RH  033%=      5-min Rain = 0
KHA2 171902Z 04004KT 08/M07 A3013 RMK A01 T00831073  RH  032%=      5-min Rain = 0
KHA2 171903Z 05003KT 08/M07 A3013 RMK A01 T00831073  RH  032%=      5-min Rain = 0
KHA2 171904Z 01002KT 08/M07 A3013 RMK A01 T00831072  RH  033%=      5-min Rain = 0
KHA2 171905Z 36001KT 08/M07 A3013 RMK A01 T00831074  RH  032%=      5-min Rain = 0
KHA2 171906Z 26000KT 08/M07 A3013 RMK A01 T00831073  RH  032%=      5-min Rain = 0
KHA2 171907Z 04003KT 09/M07 A3013 RMK A01 T00851070  RH  033%=      5-min Rain = 0
KHA2 171908Z 04003KT 09/M07 A3013 RMK A01 T00861070  RH  032%=      5-min Rain = 0
KHA2 171909Z 05002KT 09/M07 A3013 RMK A01 T00871071  RH  032%=      5-min Rain = 0
KHA2 171910Z 02002KT 09/M07 A3013 RMK A01 T00861073  RH  032%=      5-min Rain = 0
KHA2 171911Z 35004KT 09/M07 A3013 RMK A01 T00861072  RH  032%=      5-min Rain = 0
KHA2 171912Z 35003KT 09/M07 A3013 RMK A01 T00861073  RH  032%=      5-min Rain = 0
KHA2 171913Z 33006KT 09/M07 A3013 RMK A01 T00861072  RH  032%=      5-min Rain = 0
KHA2 171914Z 34006KT 09/M07 A3013 RMK A01 T00861070  RH  032%=      5-min Rain = 0
KHA2 171915Z 35006KT 09/M07 A3013 RMK A01 T00861070  RH  032%=      5-min Rain = 0
KHA2 171916Z 00005KT 09/M07 A3013 RMK A01 T00871069  RH  033%=      5-min Rain = 0
KHA2 171917Z 01004KT 09/M07 A3013 RMK A01 T00881070  RH  032%=      5-min Rain = 0
KHA2 171918Z 00005KT 09/M07 A3013 RMK A01 T00881072  RH  032%=      5-min Rain = 0
KHA2 171919Z 01004KT 09/M07 A3013 RMK A01 T00861074  RH  031%=      5-min Rain = 0
KHA2 171920Z 04003KT 09/M08 A3013 RMK A01 T00851075  RH  031%=      5-min Rain = 0
KHA2 171921Z 03003KT 08/M07 A3013 RMK A01 T00841074  RH  032%=      5-min Rain = 0
KHA2 171922Z 32000KT 08/M07 A3013 RMK A01 T00841074  RH  032%=      5-min Rain = 0
KHA2 171923Z 24001KT 09/M07 A3013 RMK A01 T00851074  RH  032%=      5-min Rain = 0
KHA2 171924Z 21002KT 09/M07 A3013 RMK A01 T00861073  RH  032%=      5-min Rain = 0
KHA2 171925Z 24005KT 09/M07 A3013 RMK A01 T00891070  RH  032%=      5-min Rain = 0
KHA2 171926Z 23004KT 09/M07 A3013 RMK A01 T00881072  RH  032%=      5-min Rain = 0
KHA2 171927Z 22003KT 09/M07 A3013 RMK A01 T00861074  RH  031%=      5-min Rain = 0
KHA2 171928Z 21003KT 09/M07 A3013 RMK A01 T00861073  RH  032%=      5-min Rain = 0
KHA2 171929Z 18001KT 09/M07 A3013 RMK A01 T00871071  RH  032%=      5-min Rain = 0
KHA2 171930Z 30002KT 09/M07 A3013 RMK A01 T00911068  RH  032%=      5-min Rain = 0
KHA2 171931Z 33003KT 09/M07 A3013 RMK A01 T00921069  RH  031%=      5-min Rain = 0
KHA2 171932Z 00003KT 09/M07 A3013 RMK A01 T00921069  RH  031%=      5-min Rain = 0
KHA2 171933Z 07005KT 09/M07 A3013 RMK A01 T00941068  RH  031%=      5-min Rain = 0
KHA2 171934Z 04006KT 09/M07 A3013 RMK A01 T00911073  RH  031%=      5-min Rain = 0
KHA2 171935Z 06003KT 09/M07 A3013 RMK A01 T00891074  RH  031%=      5-min Rain = 0
KHA2 171936Z 12002KT 09/M07 A3013 RMK A01 T00881073  RH  031%=      5-min Rain = 0
KHA2 171937Z 11003KT 09/M07 A3013 RMK A01 T00891073  RH  031%=      5-min Rain = 0
KHA2 171938Z 10003KT 09/M07 A3013 RMK A01 T00891073  RH  031%=      5-min Rain = 0
KHA2 171939Z 09003KT 09/M07 A3012 RMK A01 T00891074  RH  031%=      5-min Rain = 0
KHA2 171940Z 09002KT 09/M07 A3012 RMK A01 T00891071  RH  031%=      5-min Rain = 0
KHA2 171941Z 09002KT 09/M07 A3012 RMK A01 T00891073  RH  031%=      5-min Rain = 0
KHA2 171942Z 07002KT 09/M07 A3012 RMK A01 T00891071  RH  031%=      5-min Rain = 0
KHA2 171943Z 03002KT 09/M07 A3012 RMK A01 T00891073  RH  031%=      5-min Rain = 0
KHA2 171944Z 34004KT 09/M07 A3012 RMK A01 T00901072  RH  031%=      5-min Rain = 0
KHA2 171945Z 36007KT 09/M07 A3012 RMK A01 T00911069  RH  032%=      5-min Rain = 0
KHA2 171946Z 36007KT 09/M07 A3012 RMK A01 T00921070  RH  031%=      5-min Rain = 0
KHA2 171947Z 34007KT 09/M07 A3012 RMK A01 T00911073  RH  031%=      5-min Rain = 0
KHA2 171948Z 34006KT 09/M07 A3012 RMK A01 T00891072  RH  031%=      5-min Rain = 0
KHA2 171949Z 33006KT 09/M07 A3012 RMK A01 T00901071  RH  031%=      5-min Rain = 0
KHA2 171950Z 33005KT 09/M07 A3012 RMK A01 T00891072  RH  031%=      5-min Rain = 0
KHA2 171951Z 33005KT 09/M07 A3012 RMK A01 T00881073  RH  031%=      5-min Rain = 0
KHA2 171952Z 32005KT 09/M07 A3012 RMK A01 T00881071  RH  032%=      5-min Rain = 0
KHA2 171953Z 32005KT 09/M07 A3012 RMK A01 T00891070  RH  032%=      5-min Rain = 0
KHA2 171954Z 32005KT 09/M07 A3012 RMK A01 T00901072  RH  031%=      5-min Rain = 0
KHA2 171955Z 35005KT 09/M07 A3011 RMK A01 T00901072  RH  031%=      5-min Rain = 0
KHA2 171956Z 00004KT 09/M07 A3011 RMK A01 T00911069  RH  031%=      5-min Rain = 0
KHA2 171957Z 00003KT 09/M07 A3011 RMK A01 T00941068  RH  031%=      5-min Rain = 0
KHA2 171958Z 01004KT 09/M07 A3011 RMK A01 T00941073  RH  030%=      5-min Rain = 0
KHA2 171959Z 02004KT 09/M07 A3011 RMK A01 T00911074  RH  030%=      5-min Rain = 0
KHA2 172000Z 03002KT 09/M08 A3011 RMK A01 T00891076  RH  030%=      5-min Rain = 0
KHA2 172001Z 06002KT 09/M08 A3011 RMK A01 T00881075  RH  031%=      5-min Rain = 0
KHA2 172002Z 34002KT 09/M08 A3011 RMK A01 T00881075  RH  031%=      5-min Rain = 0
KHA2 172003Z 31002KT 09/M08 A3011 RMK A01 T00881076  RH  031%=      5-min Rain = 0
KHA2 172004Z 32003KT 09/M08 A3011 RMK A01 T00881076  RH  030%=      5-min Rain = 0
KHA2 172005Z 34002KT 09/M08 A3011 RMK A01 T00881076  RH  030%=      5-min Rain = 0
KHA2 172006Z 32001KT 09/M08 A3011 RMK A01 T00871076  RH  031%=      5-min Rain = 0
KHA2 172007Z 30002KT 09/M07 A3011 RMK A01 T00881074  RH  031%=      5-min Rain = 0
KHA2 172008Z 32001KT 09/M07 A3011 RMK A01 T00891073  RH  031%=      5-min Rain = 0
KHA2 172009Z 17000KT 09/M08 A3011 RMK A01 T00891075  RH  031%=      5-min Rain = 0
KHA2 172010Z 15000KT 09/M07 A3011 RMK A01 T00901074  RH  030%=      5-min Rain = 0
KHA2 172011Z 20001KT 09/M07 A3011 RMK A01 T00931073  RH  030%=      5-min Rain = 0
KHA2 172012Z 24002KT 10/M07 A3011 RMK A01 T00951071  RH  030%=      5-min Rain = 0
KHA2 172013Z 26001KT 10/M07 A3011 RMK A01 T00961072  RH  030%=      5-min Rain = 0
KHA2 172014Z 28002KT 10/M07 A3011 RMK A01 T00971073  RH  029%=      5-min Rain = 0
KHA2 172015Z 22001KT 10/M07 A3011 RMK A01 T00981071  RH  030%=      5-min Rain = 0
KHA2 172016Z 30002KT 10/M07 A3011 RMK A01 T01001068  RH  030%=      5-min Rain = 0
KHA2 172017Z 33002KT 10/M07 A3011 RMK A01 T01011068  RH  030%=      5-min Rain = 0
KHA2 172018Z 32002KT 10/M07 A3011 RMK A01 T01011071  RH  029%=      5-min Rain = 0
KHA2 172019Z 28004KT 10/M07 A301 RMK A01 T00991069  RH  030%=      5-min Rain = 0
KHA2 172020Z 28004KT 10/M07 A301 RMK A01 T00971072  RH  030%=      5-min Rain = 0
KHA2 172021Z 28005KT 10/M07 A301 RMK A01 T00951071  RH  030%=      5-min Rain = 0
KHA2 172022Z 28004KT 09/M07 A301 RMK A01 T00941072  RH  030%=      5-min Rain = 0
KHA2 172023Z 29002KT 09/M07 A301 RMK A01 T00941070  RH  031%=      5-min Rain = 0
KHA2 172024Z 28003KT 10/M07 A301 RMK A01 T00951070  RH  031%=      5-min Rain = 0
KHA2 172025Z 26004KT 10/M07 A301 RMK A01 T00951071  RH  030%=      5-min Rain = 0
KHA2 172026Z 24004KT 09/M07 A301 RMK A01 T00931073  RH  030%=      5-min Rain = 0
KHA2 172027Z 24004KT 09/M07 A301 RMK A01 T00931072  RH  030%=      5-min Rain = 0
KHA2 172028Z 25005KT 09/M07 A301 RMK A01 T00931071  RH  031%=      5-min Rain = 0
KHA2 172029Z 23005KT 09/M07 A301 RMK A01 T00931072  RH  030%=      5-min Rain = 0
KHA2 172030Z 23006KT 10/M07 A301 RMK A01 T00951070  RH  031%=      5-min Rain = 0
KHA2 172031Z 22006KT 09/M07 A301 RMK A01 T00941073  RH  030%=      5-min Rain = 0
KHA2 172032Z 22005KT 09/M07 A301 RMK A01 T00921074  RH  030%=      5-min Rain = 0
KHA2 172033Z 20004KT 09/M07 A301 RMK A01 T00921074  RH  030%=      5-min Rain = 0
KHA2 172034Z 25004KT 09/M07 A301 RMK A01 T00931072  RH  030%=      5-min Rain = 0
KHA2 172035Z 25004KT 10/M07 A301 RMK A01 T00951071  RH  030%=      5-min Rain = 0
KHA2 172036Z 27002KT 09/M07 A301 RMK A01 T00941073  RH  030%=      5-min Rain = 0
KHA2 172037Z 30003KT 09/M07 A301 RMK A01 T00941072  RH  030%=      5-min Rain = 0
KHA2 172038Z 31003KT 10/M07 A301 RMK A01 T00951072  RH  030%=      5-min Rain = 0
KHA2 172039Z 30003KT 10/M07 A301 RMK A01 T00951071  RH  030%=      5-min Rain = 0
KHA2 172040Z 28002KT 10/M07 A301 RMK A01 T00961072  RH  030%=      5-min Rain = 0
KHA2 172041Z 26001KT 10/M07 A301 RMK A01 T00961071  RH  030%=      5-min Rain = 0
KHA2 172042Z 27002KT 10/M07 A301 RMK A01 T00991068  RH  030%=      5-min Rain = 0
KHA2 172043Z 27002KT 10/M07 A3011 RMK A01 T00991072  RH  029%=      5-min Rain = 0
KHA2 172044Z 23001KT 10/M08 A3011 RMK A01 T00961075  RH  029%=      5-min Rain = 0
KHA2 172045Z 02001KT 10/M07 A3011 RMK A01 T00961074  RH  029%=      5-min Rain = 0
KHA2 172046Z 04003KT 10/M07 A3011 RMK A01 T00981072  RH  030%=      5-min Rain = 0
KHA2 172047Z 04006KT 10/M07 A301 RMK A01 T00981070  RH  030%=      5-min Rain = 0
KHA2 172048Z 04005KT 10/M07 A301 RMK A01 T00981072  RH  029%=      5-min Rain = 0
KHA2 172049Z 05005KT 10/M08 A301 RMK A01 T00951075  RH  030%=      5-min Rain = 0
KHA2 172050Z 03005KT 09/M07 A301 RMK A01 T00941073  RH  030%=      5-min Rain = 0
KHA2 172051Z 05004KT 09/M07 A301 RMK A01 T00931074  RH  030%=      5-min Rain = 0
KHA2 172052Z 08004KT 09/M07 A301 RMK A01 T00931072  RH  030%=      5-min Rain = 0
KHA2 172053Z 06002KT 10/M07 A301 RMK A01 T00951070  RH  031%=      5-min Rain = 0
KHA2 172054Z 08002KT 10/M07 A301 RMK A01 T00981069  RH  030%=      5-min Rain = 0
KHA2 172055Z 10003KT 10/M07 A301 RMK A01 T00981071  RH  030%=      5-min Rain = 0
KHA2 172056Z 11002KT 10/M07 A301 RMK A01 T00971073  RH  029%=      5-min Rain = 0
KHA2 172057Z 12001KT 10/M07 A301 RMK A01 T00971073  RH  030%=      5-min Rain = 0
KHA2 172058Z 13002KT 10/M07 A301 RMK A01 T00971072  RH  030%=      5-min Rain = 0
KHA2 172059Z 07002KT 10/M07 A301 RMK A01 T00991068  RH  030%=      5-min Rain = 0
KHA2 172100Z 07003KT 10/M07 A301 RMK A01 T01011069  RH  030%=      5-min Rain = 0
KHA2 172101Z 03004KT 10/M07 A301 RMK A01 T01011069  RH  029%=      5-min Rain = 0
KHA2 172102Z 01003KT 10/M07 A301 RMK A01 T01011070  RH  029%=      5-min Rain = 0
KHA2 172103Z 36002KT 10/M07 A301 RMK A01 T01011070  RH  029%=      5-min Rain = 0
KHA2 172104Z 06002KT 10/M07 A301 RMK A01 T01011069  RH  029%=      5-min Rain = 0
KHA2 172105Z 27002KT 10/M07 A301 RMK A01 T01021072  RH  029%=      5-min Rain = 0
KHA2 172106Z 29004KT 10/M07 A301 RMK A01 T01011072  RH  029%=      5-min Rain = 0
KHA2 172107Z 31002KT 10/M07 A301 RMK A01 T00991074  RH  029%=      5-min Rain = 0
KHA2 172108Z 32002KT 10/M07 A301 RMK A01 T00981074  RH  029%=      5-min Rain = 0
KHA2 172109Z 16000KT 10/M07 A301 RMK A01 T00971074  RH  029%=      5-min Rain = 0
KHA2 172110Z 05001KT 10/M07 A301 RMK A01 T00991072  RH  029%=      5-min Rain = 0
KHA2 172111Z 05002KT 10/M07 A301 RMK A01 T01001071  RH  029%=      5-min Rain = 0
KHA2 172112Z 03002KT 10/M07 A301 RMK A01 T01001073  RH  029%=      5-min Rain = 0
KHA2 172113Z 36004KT 10/M07 A301 RMK A01 T00991072  RH  029%=      5-min Rain = 0
KHA2 172114Z 36003KT 10/M07 A301 RMK A01 T00981073  RH  029%=      5-min Rain = 0
KHA2 172115Z 01001KT 10/M07 A301 RMK A01 T00971074  RH  029%=      5-min Rain = 0
KHA2 172116Z 33004KT 10/M07 A301 RMK A01 T00971073  RH  029%=      5-min Rain = 0
KHA2 172117Z 33003KT 10/M07 A301 RMK A01 T00961073  RH  029%=      5-min Rain = 0
KHA2 172118Z 31002KT 10/M07 A301 RMK A01 T00961073  RH  030%=      5-min Rain = 0
KHA2 172119Z 32003KT 10/M07 A301 RMK A01 T00961073  RH  030%=      5-min Rain = 0
KHA2 172120Z 30003KT 10/M07 A301 RMK A01 T00981070  RH  030%=      5-min Rain = 0
KHA2 172121Z 29003KT 10/M07 A301 RMK A01 T00991070  RH  030%=      5-min Rain = 0
KHA2 172122Z 28002KT 10/M07 A301 RMK A01 T00991073  RH  029%=      5-min Rain = 0
KHA2 172123Z 23001KT 10/M07 A301 RMK A01 T00981073  RH  029%=      5-min Rain = 0
KHA2 172124Z 31002KT 10/M07 A301 RMK A01 T00991072  RH  029%=      5-min Rain = 0
KHA2 172125Z 31007KT 10/M07 A301 RMK A01 T01011070  RH  029%=      5-min Rain = 0
KHA2 172126Z 31005KT 10/M07 A301 RMK A01 T01001072  RH  029%=      5-min Rain = 0
KHA2 172127Z 33005KT 10/M07 A301 RMK A01 T00981071  RH  030%=      5-min Rain = 0
KHA2 172128Z 36004KT 10/M07 A301 RMK A01 T00971073  RH  029%=      5-min Rain = 0
KHA2 172129Z 34005KT 10/M07 A301 RMK A01 T00961073  RH  030%=      5-min Rain = 0
KHA2 172130Z 32005KT 10/M07 A301 RMK A01 T00961072  RH  030%=      5-min Rain = 0
KHA2 172131Z 30005KT 10/M07 A301 RMK A01 T00961073  RH  030%=      5-min Rain = 0
KHA2 172132Z 31004KT 09/M07 A301 RMK A01 T00941074  RH  030%=      5-min Rain = 0
KHA2 172133Z 32003KT 09/M07 A301 RMK A01 T00941073  RH  030%=      5-min Rain = 0
KHA2 172134Z 33002KT 09/M07 A301 RMK A01 T00931074  RH  030%=      5-min Rain = 0
KHA2 172135Z 32002KT 09/M07 A301 RMK A01 T00941074  RH  030%=      5-min Rain = 0
KHA2 172136Z 32002KT 10/M07 A301 RMK A01 T00951073  RH  030%=      5-min Rain = 0
KHA2 172137Z 29001KT 10/M07 A301 RMK A01 T00961071  RH  030%=      5-min Rain = 0
KHA2 172138Z 27005KT 10/M07 A3009 RMK A01 T00991068  RH  030%=      5-min Rain = 0
KHA2 172139Z 27004KT 10/M07 A3009 RMK A01 T01001070  RH  029%=      5-min Rain = 0
KHA2 172140Z 28003KT 10/M07 A3009 RMK A01 T00991072  RH  029%=      5-min Rain = 0
KHA2 172141Z 30003KT 10/M07 A3009 RMK A01 T00991071  RH  030%=      5-min Rain = 0
KHA2 172142Z 32003KT 10/M07 A3009 RMK A01 T00991072  RH  029%=      5-min Rain = 0
KHA2 172143Z 33003KT 10/M07 A3009 RMK A01 T00981073  RH  029%=      5-min Rain = 0
KHA2 172144Z 33004KT 10/M07 A3009 RMK A01 T00971073  RH  029%=      5-min Rain = 0
KHA2 172145Z 35004KT 10/M07 A3009 RMK A01 T00971071  RH  030%=      5-min Rain = 0
KHA2 172146Z 01003KT 10/M07 A3009 RMK A01 T00971072  RH  030%=      5-min Rain = 0
KHA2 172147Z 35002KT 10/M07 A3009 RMK A01 T00971072  RH  030%=      5-min Rain = 0
KHA2 172148Z 33002KT 10/M07 A3009 RMK A01 T00971071  RH  030%=      5-min Rain = 0
KHA2 172149Z 35002KT 10/M07 A3009 RMK A01 T00981071  RH  030%=      5-min Rain = 0
KHA2 172150Z 31003KT 10/M07 A3009 RMK A01 T00991071  RH  029%=      5-min Rain = 0
KHA2 172151Z 28005KT 10/M07 A3009 RMK A01 T00991071  RH  029%=      5-min Rain = 0
KHA2 172152Z 27004KT 10/M07 A3009 RMK A01 T01001070  RH  029%=      5-min Rain = 0
KHA2 172153Z 26005KT 10/M07 A3009 RMK A01 T01021068  RH  030%=      5-min Rain = 0
KHA2 172154Z 28005KT 10/M07 A3009 RMK A01 T01041068  RH  029%=      5-min Rain = 0
KHA2 172155Z 28004KT 10/M07 A3009 RMK A01 T01031071  RH  029%=      5-min Rain = 0
KHA2 172156Z 25006KT 10/M07 A3009 RMK A01 T01021071  RH  029%=      5-min Rain = 0
KHA2 172157Z 24004KT 10/M07 A3009 RMK A01 T01011070  RH  029%=      5-min Rain = 0
KHA2 172158Z 27004KT 10/M07 A3009 RMK A01 T01011071  RH  029%=      5-min Rain = 0
KHA2 172159Z 29006KT 10/M07 A3009 RMK A01 T01011072  RH  029%=      5-min Rain = 0
KHA2 172200Z 30004KT 10/M07 A3009 RMK A01 T01001072  RH  029%=      5-min Rain = 0
KHA2 172201Z 29003KT 10/M07 A3009 RMK A01 T00991072  RH  029%=      5-min Rain = 0
KHA2 172202Z 25005KT 10/M07 A3009 RMK A01 T00991071  RH  030%=      5-min Rain = 0
KHA2 172203Z 24007KT 10/M07 A3009 RMK A01 T01001070  RH  029%=      5-min Rain = 0
KHA2 172204Z 24006KT 10/M07 A3009 RMK A01 T01001072  RH  029%=      5-min Rain = 0
KHA2 172205Z 24005KT 10/M07 A3009 RMK A01 T00981073  RH  029%=      5-min Rain = 0
KHA2 172206Z 24005KT 10/M07 A3009 RMK A01 T00981073  RH  029%=      5-min Rain = 0
KHA2 172207Z 23005KT 10/M07 A3009 RMK A01 T00971074  RH  029%=      5-min Rain = 0
KHA2 172208Z 23005KT 10/M08 A3009 RMK A01 T00971075  RH  029%=      5-min Rain = 0
KHA2 172209Z 24003KT 10/M07 A3009 RMK A01 T00971074  RH  029%=      5-min Rain = 0
KHA2 172210Z 25003KT 10/M07 A3009 RMK A01 T00971072  RH  030%=      5-min Rain = 0
KHA2 172211Z 24002KT 10/M07 A3008 RMK A01 T00991072  RH  029%=      5-min Rain = 0
KHA2 172212Z 27003KT 10/M07 A3008 RMK A01 T00991072  RH  029%=      5-min Rain = 0
KHA2 172213Z 28004KT 10/M07 A3008 RMK A01 T00991071  RH  029%=      5-min Rain = 0
KHA2 172214Z 27005KT 10/M07 A3008 RMK A01 T01001071  RH  029%=      5-min Rain = 0
KHA2 172215Z 27003KT 10/M07 A3008 RMK A01 T01001071  RH  029%=      5-min Rain = 0
KHA2 172216Z 22003KT 10/M07 A3008 RMK A01 T00991072  RH  029%=      5-min Rain = 0
KHA2 172217Z 22002KT 10/M07 A3008 RMK A01 T00991071  RH  029%=      5-min Rain = 0
KHA2 172218Z 20004KT 10/M07 A3008 RMK A01 T01011071  RH  029%=      5-min Rain = 0
KHA2 172219Z 24004KT 10/M07 A3008 RMK A01 T01021071  RH  029%=      5-min Rain = 0
KHA2 172220Z 27006KT 10/M07 A3008 RMK A01 T01011070  RH  029%=      5-min Rain = 0
KHA2 172221Z 25004KT 10/M07 A3008 RMK A01 T01001071  RH  029%=      5-min Rain = 0
KHA2 172222Z 28005KT 10/M07 A3008 RMK A01 T00991071  RH  030%=      5-min Rain = 0
KHA2 172223Z 28004KT 10/M07 A3007 RMK A01 T00991069  RH  030%=      5-min Rain = 0
KHA2 172224Z 28005KT 10/M07 A3007 RMK A01 T01001069  RH  030%=      5-min Rain = 0
KHA2 172225Z 26004KT 10/M07 A3007 RMK A01 T01001070  RH  030%=      5-min Rain = 0
KHA2 172226Z 26003KT 10/M07 A3007 RMK A01 T00981072  RH  029%=      5-min Rain = 0
KHA2 172227Z 25004KT 10/M07 A3007 RMK A01 T00981070  RH  030%=      5-min Rain = 0
KHA2 172228Z 24004KT 10/M07 A3007 RMK A01 T00991069  RH  030%=      5-min Rain = 0
KHA2 172229Z 23004KT 10/M07 A3007 RMK A01 T01011067  RH  030%=      5-min Rain = 0
KHA2 172230Z 23004KT 10/M07 A3007 RMK A01 T01021067  RH  030%=      5-min Rain = 0
KHA2 172231Z 24004KT 10/M07 A3007 RMK A01 T01011069  RH  030%=      5-min Rain = 0
KHA2 172232Z 23005KT 10/M07 A3007 RMK A01 T01011067  RH  030%=      5-min Rain = 0
KHA2 172233Z 22005KT 10/M07 A3007 RMK A01 T01021067  RH  030%=      5-min Rain = 0
KHA2 172234Z 21006KT 10/M07 A3007 RMK A01 T01011067  RH  030%=      5-min Rain = 0
KHA2 172235Z 21007KT 10/M07 A3007 RMK A01 T01011067  RH  030%=      5-min Rain = 0
KHA2 172236Z 21005KT 10/M07 A3007 RMK A01 T01001069  RH  030%=      5-min Rain = 0
KHA2 172237Z 21005KT 10/M07 A3007 RMK A01 T00991069  RH  030%=      5-min Rain = 0
KHA2 172238Z 21005KT 10/M07 A3007 RMK A01 T00981069  RH  030%=      5-min Rain = 0
KHA2 172239Z 22004KT 10/M07 A3007 RMK A01 T00981068  RH  030%=      5-min Rain = 0
KHA2 172240Z 21004KT 10/M07 A3007 RMK A01 T00971070  RH  030%=      5-min Rain = 0
KHA2 172241Z 21005KT 10/M07 A3007 RMK A01 T00971069  RH  030%=      5-min Rain = 0
KHA2 172242Z 22006KT 10/M07 A3007 RMK A01 T00971069  RH  030%=      5-min Rain = 0
KHA2 172243Z 24005KT 10/M07 A3007 RMK A01 T00961070  RH  030%=      5-min Rain = 0
KHA2 172244Z 25005KT 10/M07 A3007 RMK A01 T00951071  RH  030%=      5-min Rain = 0
KHA2 172245Z 23002KT 10/M07 A3007 RMK A01 T00951070  RH  030%=      5-min Rain = 0
KHA2 172246Z 22003KT 10/M07 A3007 RMK A01 T00951070  RH  030%=      5-min Rain = 0
KHA2 172247Z 25003KT 10/M07 A3007 RMK A01 T00961069  RH  031%=      5-min Rain = 0
KHA2 172248Z 23004KT 10/M07 A3007 RMK A01 T00971068  RH  031%=      5-min Rain = 0
KHA2 172249Z 23006KT 10/M07 A3007 RMK A01 T00981067  RH  031%=      5-min Rain = 0
KHA2 172250Z 23006KT 10/M07 A3007 RMK A01 T00981068  RH  030%=      5-min Rain = 0
KHA2 172251Z 21006KT 10/M07 A3007 RMK A01 T00971069  RH  030%=      5-min Rain = 0
KHA2 172252Z 22007KT 10/M07 A3007 RMK A01 T00961068  RH  031%=      5-min Rain = 0
KHA2 172253Z 21007KT 10/M07 A3007 RMK A01 T00961067  RH  031%=      5-min Rain = 0
KHA2 172254Z 20005KT 10/M07 A3007 RMK A01 T00961068  RH  031%=      5-min Rain = 0
KHA2 172255Z 22005KT 10/M07 A3007 RMK A01 T00951068  RH  031%=      5-min Rain = 0
KHA2 172256Z 22005KT 09/M07 A3007 RMK A01 T00941068  RH  031%=      5-min Rain = 0
KHA2 172257Z 24006KT 09/M07 A3007 RMK A01 T00941067  RH  031%=      5-min Rain = 0
KHA2 172258Z 24007KT 09/M07 A3007 RMK A01 T00941068  RH  031%=      5-min Rain = 0
KHA2 172259Z 24007KT 09/M07 A3007 RMK A01 T00931069  RH  031%=      5-min Rain = 0
KHA2 172300Z 25006KT 09/M07 A3007 RMK A01 T00921068  RH  031%=      5-min Rain = 0
KHA2 172301Z 24007KT 09/M07 A3007 RMK A01 T00921068  RH  032%=      5-min Rain = 0
KHA2 172302Z 24007KT 09/M07 A3007 RMK A01 T00921067  RH  032%=      5-min Rain = 0
KHA2 172303Z 24006KT 09/M07 A3007 RMK A01 T00921066  RH  032%=      5-min Rain = 0
KHA2 172304Z 23006KT 09/M07 A3007 RMK A01 T00921066  RH  032%=      5-min Rain = 0
KHA2 172305Z 22006KT 09/M07 A3007 RMK A01 T00921066  RH  032%=      5-min Rain = 0
KHA2 172306Z 24007KT 09/M07 A3007 RMK A01 T00921066  RH  032%=      5-min Rain = 0
KHA2 172307Z 23007KT 09/M07 A3007 RMK A01 T00931066  RH  032%=      5-min Rain = 0
KHA2 172308Z 23007KT 09/M07 A3007 RMK A01 T00931065  RH  032%=      5-min Rain = 0
KHA2 172309Z 24006KT 09/M07 A3007 RMK A01 T00931065  RH  032%=      5-min Rain = 0
KHA2 172310Z 23005KT 09/M07 A3007 RMK A01 T00931066  RH  032%=      5-min Rain = 0
KHA2 172311Z 23005KT 09/M07 A3007 RMK A01 T00931066  RH  032%=      5-min Rain = 0
KHA2 172312Z 23005KT 09/M07 A3007 RMK A01 T00931066  RH  032%=      5-min Rain = 0
KHA2 172313Z 23006KT 09/M07 A3007 RMK A01 T00931066  RH  032%=      5-min Rain = 0
KHA2 172314Z 23007KT 09/M07 A3007 RMK A01 T00931065  RH  032%=      5-min Rain = 0
KHA2 172315Z 23006KT 09/M07 A3006 RMK A01 T00931066  RH  032%=      5-min Rain = 0
KHA2 172316Z 22007KT 09/M07 A3006 RMK A01 T00921065  RH  032%=      5-min Rain = 0
KHA2 172317Z 21005KT 09/M06 A3006 RMK A01 T00921064  RH  033%=      5-min Rain = 0
KHA2 172318Z 21006KT 09/M06 A3006 RMK A01 T00921064  RH  033%=      5-min Rain = 0
KHA2 172319Z 22005KT 09/M06 A3006 RMK A01 T00911064  RH  033%=      5-min Rain = 0
KHA2 172320Z 21006KT 09/M06 A3006 RMK A01 T00911064  RH  033%=      5-min Rain = 0
KHA2 172321Z 22007KT 09/M06 A3006 RMK A01 T00901064  RH  033%=      5-min Rain = 0
KHA2 172322Z 22008KT 09/M07 A3006 RMK A01 T00901065  RH  033%=      5-min Rain = 0
KHA2 172323Z 22007KT 09/M07 A3006 RMK A01 T00891066  RH  033%=      5-min Rain = 0
KHA2 172324Z 22006KT 09/M07 A3006 RMK A01 T00881065  RH  033%=      5-min Rain = 0
KHA2 172325Z 22006KT 09/M07 A3006 RMK A01 T00881065  RH  033%=      5-min Rain = 0
KHA2 172326Z 23006KT 09/M07 A3006 RMK A01 T00881065  RH  033%=      5-min Rain = 0
KHA2 172327Z 22006KT 09/M07 A3006 RMK A01 T00881065  RH  033%=      5-min Rain = 0
KHA2 172328Z 22006KT 09/M07 A3006 RMK A01 T00881065  RH  033%=      5-min Rain = 0
KHA2 172329Z 22006KT 09/M07 A3006 RMK A01 T00871065  RH  033%=      5-min Rain = 0
KHA2 172330Z 23006KT 09/M07 A3006 RMK A01 T00871065  RH  034%=      5-min Rain = 0
KHA2 172331Z 22006KT 09/M07 A3006 RMK A01 T00871065  RH  033%=      5-min Rain = 0
KHA2 172332Z 22006KT 09/M07 A3006 RMK A01 T00861066  RH  033%=      5-min Rain = 0
KHA2 172333Z 22006KT 09/M07 A3006 RMK A01 T00861065  RH  034%=      5-min Rain = 0
KHA2 172334Z 22005KT 09/M07 A3006 RMK A01 T00851066  RH  034%=      5-min Rain = 0
KHA2 172335Z 22006KT 08/M07 A3006 RMK A01 T00841066  RH  034%=      5-min Rain = 0
KHA2 172336Z 21006KT 08/M07 A3006 RMK A01 T00831066  RH  034%=      5-min Rain = 0
KHA2 172337Z 21007KT 08/M07 A3006 RMK A01 T00821066  RH  034%=      5-min Rain = 0
KHA2 172338Z 20006KT 08/M07 A3006 RMK A01 T00811066  RH  034%=      5-min Rain = 0
KHA2 172339Z 20006KT 08/M07 A3006 RMK A01 T00811066  RH  035%=      5-min Rain = 0
KHA2 172340Z 20006KT 08/M07 A3006 RMK A01 T00791066  RH  035%=      5-min Rain = 0
KHA2 172341Z 20006KT 08/M07 A3006 RMK A01 T00771066  RH  035%=      5-min Rain = 0
KHA2 172342Z 19006KT 08/M07 A3006 RMK A01 T00761066  RH  036%=      5-min Rain = 0
KHA2 172343Z 19006KT 08/M07 A3006 RMK A01 T00751066  RH  036%=      5-min Rain = 0
KHA2 172344Z 19006KT 07/M07 A3006 RMK A01 T00741066  RH  036%=      5-min Rain = 0
KHA2 172345Z 20006KT 07/M07 A3006 RMK A01 T00731066  RH  036%=      5-min Rain = 0
KHA2 172346Z 20007KT 07/M07 A3006 RMK A01 T00721067  RH  037%=      5-min Rain = 0
KHA2 172347Z 20006KT 07/M07 A3006 RMK A01 T00701067  RH  037%=      5-min Rain = 0
KHA2 172348Z 20006KT 07/M07 A3006 RMK A01 T00691067  RH  037%=      5-min Rain = 0
KHA2 172349Z 21006KT 07/M07 A3006 RMK A01 T00671068  RH  038%=      5-min Rain = 0
KHA2 172350Z 21006KT 07/M07 A3006 RMK A01 T00651068  RH  038%=      5-min Rain = 0
KHA2 172351Z 21006KT 06/M07 A3006 RMK A01 T00641067  RH  038%=      5-min Rain = 0
KHA2 172352Z 21006KT 06/M07 A3006 RMK A01 T00631068  RH  039%=      5-min Rain = 0
KHA2 172353Z 21006KT 06/M07 A3006 RMK A01 T00621068  RH  039%=      5-min Rain = 0
KHA2 172354Z 21006KT 06/M07 A3006 RMK A01 T00601069  RH  039%=      5-min Rain = 0
KHA2 172355Z 21006KT 06/M07 A3006 RMK A01 T00591069  RH  039%=      5-min Rain = 0
KHA2 172356Z 21006KT 06/M07 A3006 RMK A01 T00581069  RH  040%=      5-min Rain = 0
KHA2 172357Z 21005KT 06/M07 A3006 RMK A01 T00571069  RH  040%=      5-min Rain = 0
KHA2 172358Z 21005KT 06/M07 A3006 RMK A01 T00571069  RH  040%=      5-min Rain = 0
KHA2 172359Z 21005KT 06/M07 A3006 RMK A01 T00551070  RH  040%=      5-min Rain = 0
KHA2 180000Z 21006KT 05/M07 A3006 RMK A01 T00541070  RH  040%=      5-min Rain = 0
KHA2 180001Z 21006KT 05/M07 A3006 RMK A01 T00531071  RH  041%=      5-min Rain = 0
KHA2 180002Z 21006KT 05/M07 A3006 RMK A01 T00511072  RH  041%=      5-min Rain = 0
KHA2 180003Z 20006KT 05/M07 A3006 RMK A01 T00501072  RH  041%=      5-min Rain = 0
KHA2 180004Z 20006KT 05/M07 A3006 RMK A01 T00491072  RH  041%=      5-min Rain = 0
KHA2 180005Z 20006KT 05/M07 A3006 RMK A01 T00491073  RH  041%=      5-min Rain = 0
KHA2 180006Z 20006KT 05/M07 A3006 RMK A01 T00471073  RH  042%=      5-min Rain = 0
KHA2 180007Z 21006KT 05/M07 A3006 RMK A01 T00461072  RH  042%=      5-min Rain = 0
KHA2 180008Z 21006KT 05/M07 A3006 RMK A01 T00451072  RH  042%=      5-min Rain = 0
KHA2 180009Z 21006KT 04/M07 A3006 RMK A01 T00441071  RH  043%=      5-min Rain = 0
KHA2 180010Z 21006KT 04/M07 A3006 RMK A01 T00441070  RH  043%=      5-min Rain = 0
KHA2 180011Z 21006KT 05/M07 A3006 RMK A01 T00451070  RH  043%=      5-min Rain = 0
KHA2 180012Z 21006KT 05/M07 A3006 RMK A01 T00461070  RH  043%=      5-min Rain = 0
KHA2 180013Z 21006KT 05/M07 A3006 RMK A01 T00461071  RH  043%=      5-min Rain = 0
KHA2 180014Z 21006KT 05/M07 A3006 RMK A01 T00461070  RH  042%=      5-min Rain = 0
KHA2 180015Z 21007KT 05/M07 A3006 RMK A01 T00471070  RH  042%=      5-min Rain = 0
KHA2 180016Z 21007KT 05/M07 A3006 RMK A01 T00481070  RH  042%=      5-min Rain = 0
KHA2 180017Z 21007KT 05/M07 A3006 RMK A01 T00471071  RH  042%=      5-min Rain = 0
KHA2 180018Z 21007KT 05/M07 A3006 RMK A01 T00461071  RH  042%=      5-min Rain = 0
KHA2 180019Z 21006KT 04/M07 A3006 RMK A01 T00441072  RH  042%=      5-min Rain = 0
KHA2 180020Z 20004KT 04/M08 A3006 RMK A01 T00401076  RH  043%=      5-min Rain = 0
KHA2 180021Z 20006KT 03/M08 A3006 RMK A01 T00341078  RH  044%=      5-min Rain = 0
KHA2 180022Z 21006KT 03/M08 A3006 RMK A01 T00321076  RH  045%=      5-min Rain = 0
KHA2 180023Z 21006KT 03/M07 A3006 RMK A01 T00321074  RH  046%=      5-min Rain = 0
KHA2 180024Z 21006KT 03/M07 A3006 RMK A01 T00331072  RH  046%=      5-min Rain = 0
KHA2 180025Z 20007KT 03/M07 A3006 RMK A01 T00331073  RH  046%=      5-min Rain = 0
KHA2 180026Z 20007KT 03/M07 A3006 RMK A01 T00331073  RH  046%=      5-min Rain = 0
KHA2 180027Z 20007KT 03/M07 A3006 RMK A01 T00321074  RH  046%=      5-min Rain = 0
KHA2 180028Z 20007KT 03/M08 A3006 RMK A01 T00301075  RH  046%=      5-min Rain = 0
KHA2 180029Z 20007KT 03/M08 A3006 RMK A01 T00281075  RH  047%=      5-min Rain = 0
KHA2 180030Z 21007KT 03/M08 A3006 RMK A01 T00261075  RH  047%=      5-min Rain = 0
KHA2 180031Z 21007KT 03/M08 A3006 RMK A01 T00251075  RH  048%=      5-min Rain = 0
KHA2 180032Z 21007KT 03/M07 A3006 RMK A01 T00251074  RH  048%=      5-min Rain = 0
KHA2 180033Z 21007KT 02/M07 A3006 RMK A01 T00241073  RH  049%=      5-min Rain = 0
KHA2 180034Z 21007KT 03/M07 A3006 RMK A01 T00251072  RH  049%=      5-min Rain = 0
KHA2 180035Z 21008KT 03/M07 A3006 RMK A01 T00271071  RH  049%=      5-min Rain = 0
KHA2 180036Z 21008KT 03/M07 A3006 RMK A01 T00281071  RH  048%=      5-min Rain = 0
KHA2 180037Z 21008KT 03/M07 A3006 RMK A01 T00281072  RH  048%=      5-min Rain = 0
KHA2 180038Z 21008KT 03/M07 A3006 RMK A01 T00291072  RH  048%=      5-min Rain = 0
KHA2 180039Z 21008KT 03/M07 A3006 RMK A01 T00301071  RH  047%=      5-min Rain = 0
KHA2 180040Z 21008KT 03/M07 A3006 RMK A01 T00301072  RH  047%=      5-min Rain = 0
KHA2 180041Z 21008KT 03/M07 A3007 RMK A01 T00301072  RH  047%=      5-min Rain = 0
KHA2 180042Z 21008KT 03/M07 A3007 RMK A01 T00301072  RH  047%=      5-min Rain = 0
KHA2 180043Z 21008KT 03/M07 A3007 RMK A01 T00301072  RH  047%=      5-min Rain = 0
KHA2 180044Z 21008KT 03/M07 A3007 RMK A01 T00291072  RH  047%=      5-min Rain = 0
KHA2 180045Z 21008KT 03/M07 A3007 RMK A01 T00281073  RH  047%=      5-min Rain = 0
KHA2 180046Z 21008KT 03/M07 A3007 RMK A01 T00281072  RH  048%=      5-min Rain = 0
KHA2 180047Z 21008KT 03/M07 A3007 RMK A01 T00271073  RH  048%=      5-min Rain = 0
KHA2 180048Z 21008KT 03/M07 A3007 RMK A01 T00261073  RH  048%=      5-min Rain = 0
KHA2 180049Z 21008KT 03/M07 A3007 RMK A01 T00251074  RH  048%=      5-min Rain = 0
KHA2 180050Z 21008KT 03/M07 A3007 RMK A01 T00261073  RH  048%=      5-min Rain = 0
KHA2 180051Z 21008KT 03/M07 A3007 RMK A01 T00261073  RH  048%=      5-min Rain = 0
KHA2 180052Z 21008KT 03/M07 A3007 RMK A01 T00261073  RH  048%=      5-min Rain = 0
KHA2 180053Z 21008KT 03/M07 A3007 RMK A01 T00261073  RH  048%=      5-min Rain = 0
KHA2 180054Z 20008KT 03/M07 A3007 RMK A01 T00261074  RH  048%=      5-min Rain = 0
KHA2 180055Z 20008KT 03/M07 A3007 RMK A01 T00251074  RH  048%=      5-min Rain = 0
KHA2 180056Z 20008KT 02/M07 A3007 RMK A01 T00241074  RH  048%=      5-min Rain = 0
KHA2 180057Z 20008KT 02/M07 A3007 RMK A01 T00241074  RH  048%=      5-min Rain = 0
KHA2 180058Z 20008KT 02/M07 A3007 RMK A01 T00241074  RH  048%=      5-min Rain = 0
KHA2 180059Z 20009KT 02/M07 A3007 RMK A01 T00241073  RH  049%=      5-min Rain = 0
KHA2 180100Z 20009KT 02/M07 A3007 RMK A01 T00241073  RH  049%=      5-min Rain = 0
KHA2 180101Z 20009KT 02/M07 A3006 RMK A01 T00241073  RH  049%=      5-min Rain = 0
KHA2 180102Z 20008KT 02/M07 A3006 RMK A01 T00241073  RH  049%=      5-min Rain = 0
KHA2 180103Z 20008KT 02/M07 A3006 RMK A01 T00231073  RH  049%=      5-min Rain = 0
KHA2 180104Z 20008KT 02/M07 A3006 RMK A01 T00221073  RH  049%=      5-min Rain = 0
KHA2 180105Z 20008KT 02/M07 A3006 RMK A01 T00211074  RH  049%=      5-min Rain = 0
KHA2 180106Z 20008KT 02/M07 A3006 RMK A01 T00201074  RH  050%=      5-min Rain = 0
KHA2 180107Z 20008KT 02/M07 A3006 RMK A01 T00191073  RH  050%=      5-min Rain = 0
KHA2 180108Z 20008KT 02/M07 A3006 RMK A01 T00191073  RH  051%=      5-min Rain = 0
KHA2 180109Z 20008KT 02/M07 A3006 RMK A01 T00181073  RH  051%=      5-min Rain = 0
KHA2 180110Z 20008KT 02/M07 A3006 RMK A01 T00171073  RH  051%=      5-min Rain = 0
KHA2 180111Z 20008KT 02/M07 A3006 RMK A01 T00171073  RH  051%=      5-min Rain = 0
KHA2 180112Z 20008KT 02/M07 A3006 RMK A01 T00161073  RH  051%=      5-min Rain = 0
KHA2 180113Z 20008KT 02/M07 A3006 RMK A01 T00161073  RH  051%=      5-min Rain = 0
KHA2 180114Z 20008KT 02/M07 A3006 RMK A01 T00161073  RH  052%=      5-min Rain = 0
KHA2 180115Z 20008KT 02/M07 A3006 RMK A01 T00151073  RH  052%=      5-min Rain = 0
KHA2 180116Z 20008KT 02/M07 A3006 RMK A01 T00151073  RH  052%=      5-min Rain = 0
KHA2 180117Z 20008KT 01/M07 A3006 RMK A01 T00141073  RH  052%=      5-min Rain = 0
KHA2 180118Z 20008KT 01/M07 A3006 RMK A01 T00131073  RH  052%=      5-min Rain = 0
KHA2 180119Z 21008KT 01/M07 A3006 RMK A01 T00131073  RH  053%=      5-min Rain = 0
KHA2 180120Z 20008KT 01/M07 A3006 RMK A01 T00121073  RH  053%=      5-min Rain = 0
KHA2 180121Z 20008KT 01/M07 A3006 RMK A01 T00121073  RH  053%=      5-min Rain = 0
KHA2 180122Z 21008KT 01/M07 A3006 RMK A01 T00121072  RH  053%=      5-min Rain = 0
KHA2 180123Z 21008KT 01/M07 A3006 RMK A01 T00131072  RH  053%=      5-min Rain = 0
KHA2 180124Z 21009KT 01/M07 A3006 RMK A01 T00141072  RH  053%=      5-min Rain = 0
KHA2 180125Z 21009KT 01/M07 A3006 RMK A01 T00141072  RH  053%=      5-min Rain = 0
KHA2 180126Z 21009KT 01/M07 A3006 RMK A01 T00141073  RH  052%=      5-min Rain = 0
KHA2 180127Z 21009KT 01/M07 A3005 RMK A01 T00141073  RH  052%=      5-min Rain = 0
KHA2 180128Z 21008KT 01/M07 A3005 RMK A01 T00141074  RH  052%=      5-min Rain = 0
KHA2 180129Z 21008KT 01/M08 A3005 RMK A01 T00131075  RH  052%=      5-min Rain = 0
KHA2 180130Z 21009KT 01/M08 A3005 RMK A01 T00121076  RH  052%=      5-min Rain = 0
KHA2 180131Z 21009KT 01/M08 A3005 RMK A01 T00111076  RH  052%=      5-min Rain = 0
KHA2 180132Z 21009KT 01/M08 A3005 RMK A01 T00101076  RH  053%=      5-min Rain = 0
KHA2 180133Z 21009KT 01/M08 A3005 RMK A01 T00091076  RH  053%=      5-min Rain = 0
KHA2 180134Z 21008KT 01/M08 A3005 RMK A01 T00091076  RH  053%=      5-min Rain = 0
KHA2 180135Z 20008KT 01/M08 A3005 RMK A01 T00091076  RH  053%=      5-min Rain = 0
KHA2 180136Z 21008KT 01/M08 A3005 RMK A01 T00091076  RH  053%=      5-min Rain = 0
KHA2 180137Z 21008KT 01/M08 A3005 RMK A01 T00081076  RH  053%=      5-min Rain = 0
KHA2 180138Z 21008KT 01/M08 A3005 RMK A01 T00081076  RH  053%=      5-min Rain = 0
KHA2 180139Z 21008KT 01/M08 A3005 RMK A01 T00081076  RH  053%=      5-min Rain = 0
KHA2 180140Z 21009KT 01/M08 A3005 RMK A01 T00081076  RH  054%=      5-min Rain = 0
KHA2 180141Z 21009KT 01/M08 A3005 RMK A01 T00081076  RH  054%=      5-min Rain = 0
KHA2 180142Z 21009KT 01/M08 A3005 RMK A01 T00081076  RH  054%=      5-min Rain = 0
KHA2 180143Z 21009KT 01/M08 A3005 RMK A01 T00071076  RH  054%=      5-min Rain = 0
KHA2 180144Z 21009KT 01/M08 A3005 RMK A01 T00071075  RH  054%=      5-min Rain = 0
KHA2 180145Z 21008KT 01/M08 A3005 RMK A01 T00071075  RH  054%=      5-min Rain = 0
KHA2 180146Z 21008KT 01/M08 A3005 RMK A01 T00061075  RH  055%=      5-min Rain = 0
KHA2 180147Z 21008KT 01/M08 A3005 RMK A01 T00061075  RH  055%=      5-min Rain = 0
KHA2 180148Z 21008KT 01/M08 A3005 RMK A01 T00061075  RH  055%=      5-min Rain = 0
KHA2 180149Z 21008KT 01/M07 A3005 RMK A01 T00061074  RH  055%=      5-min Rain = 0
KHA2 180150Z 21009KT 01/M07 A3005 RMK A01 T00061074  RH  055%=      5-min Rain = 0
KHA2 180151Z 21009KT 01/M08 A3005 RMK A01 T00061075  RH  054%=      5-min Rain = 0
KHA2 180152Z 21008KT 01/M08 A3005 RMK A01 T00061075  RH  054%=      5-min Rain = 0
KHA2 180153Z 20008KT 01/M08 A3005 RMK A01 T00061075  RH  055%=      5-min Rain = 0
KHA2 180154Z 20008KT 00/M08 A3005 RMK A01 T00041076  RH  055%=      5-min Rain = 0
KHA2 180155Z 20007KT 00/M08 A3005 RMK A01 T00011077  RH  056%=      5-min Rain = 0
KHA2 180156Z 21007KT M00/M08 A3005 RMK A01 T10011078  RH  056%=      5-min Rain = 0
KHA2 180157Z 21008KT M00/M08 A3005 RMK A01 T10041080  RH  057%=      5-min Rain = 0
KHA2 180158Z 21008KT M01/M08 A3005 RMK A01 T10061080  RH  057%=      5-min Rain = 0
KHA2 180159Z 21008KT M01/M08 A3005 RMK A01 T10051078  RH  058%=      5-min Rain = 0
KHA2 180200Z 21008KT M00/M08 A3005 RMK A01 T10021075  RH  058%=      5-min Rain = 0
KHA2 180201Z 21008KT 00/08 A3005 RMK A01 T00000-75  RH  057%=      5-min Rain = 0
KHA2 180202Z 21008KT 00/M08 A3005 RMK A01 T00021075  RH  056%=      5-min Rain = 0
KHA2 180203Z 21008KT 00/M08 A3005 RMK A01 T00021075  RH  056%=      5-min Rain = 0
KHA2 180204Z 21008KT 00/M08 A3005 RMK A01 T00031075  RH  056%=      5-min Rain = 0
KHA2 180205Z 21008KT 00/M08 A3005 RMK A01 T00031075  RH  056%=      5-min Rain = 0
KHA2 180206Z 21008KT 00/M08 A3005 RMK A01 T00031075  RH  056%=      5-min Rain = 0
KHA2 180207Z 21009KT 00/M08 A3005 RMK A01 T00031075  RH  056%=      5-min Rain = 0
KHA2 180208Z 21009KT 00/M08 A3005 RMK A01 T00021076  RH  056%=      5-min Rain = 0
KHA2 180209Z 21009KT 00/M08 A3005 RMK A01 T00021075  RH  056%=      5-min Rain = 0
KHA2 180210Z 21009KT 00/M07 A3005 RMK A01 T00021074  RH  057%=      5-min Rain = 0
KHA2 180211Z 21008KT 00/M07 A3005 RMK A01 T00031074  RH  057%=      5-min Rain = 0
KHA2 180212Z 21008KT 00/M07 A3005 RMK A01 T00031073  RH  056%=      5-min Rain = 0
KHA2 180213Z 21008KT 00/M07 A3005 RMK A01 T00031074  RH  056%=      5-min Rain = 0
KHA2 180214Z 21008KT 00/M07 A3005 RMK A01 T00031074  RH  056%=      5-min Rain = 0
KHA2 180215Z 21008KT 00/M08 A3005 RMK A01 T00031075  RH  056%=      5-min Rain = 0
KHA2 180216Z 21008KT 00/M08 A3005 RMK A01 T00021075  RH  056%=      5-min Rain = 0
KHA2 180217Z 21008KT 00/M08 A3005 RMK A01 T00021075  RH  056%=      5-min Rain = 0
KHA2 180218Z 21008KT 00/M08 A3005 RMK A01 T00021075  RH  056%=      5-min Rain = 0
KHA2 180219Z 21008KT 00/M08 A3005 RMK A01 T00011075  RH  056%=      5-min Rain = 0
KHA2 180220Z 21008KT 00/M08 A3005 RMK A01 T00021075  RH  057%=      5-min Rain = 0
KHA2 180221Z 21008KT 00/M08 A3005 RMK A01 T00011075  RH  057%=      5-min Rain = 0
KHA2 180222Z 21009KT 00/M08 A3005 RMK A01 T00011075  RH  057%=      5-min Rain = 0
KHA2 180223Z 21009KT 00/08 A3005 RMK A01 T00000-75  RH  057%=      5-min Rain = 0
KHA2 180224Z 21009KT 00/08 A3004 RMK A01 T00000-75  RH  057%=      5-min Rain = 0
KHA2 180225Z 21009KT 00/08 A3004 RMK A01 T00000-75  RH  057%=      5-min Rain = 0
KHA2 180226Z 21009KT 00/M07 A3005 RMK A01 T00011074  RH  057%=      5-min Rain = 0
KHA2 180227Z 22008KT 00/M07 A3005 RMK A01 T00011074  RH  057%=      5-min Rain = 0
KHA2 180228Z 21008KT 00/M07 A3005 RMK A01 T00011074  RH  057%=      5-min Rain = 0
KHA2 180229Z 21008KT 00/M07 A3004 RMK A01 T00011074  RH  057%=      5-min Rain = 0
KHA2 180230Z 21009KT 00/M07 A3004 RMK A01 T00011074  RH  057%=      5-min Rain = 0
KHA2 180231Z 21009KT 00/M07 A3004 RMK A01 T00011074  RH  057%=      5-min Rain = 0
KHA2 180232Z 22009KT 00/07 A3004 RMK A01 T00000-74  RH  057%=      5-min Rain = 0
KHA2 180233Z 22009KT 00/07 A3004 RMK A01 T00000-74  RH  057%=      5-min Rain = 0
KHA2 180234Z 22009KT 00/M07 A3004 RMK A01 T00011074  RH  057%=      5-min Rain = 0
KHA2 180235Z 21010KT 00/M07 A3004 RMK A01 T00011073  RH  057%=      5-min Rain = 0
KHA2 180236Z 21010KT 00/M07 A3004 RMK A01 T00021073  RH  057%=      5-min Rain = 0
KHA2 180237Z 21009KT 00/M07 A3004 RMK A01 T00031073  RH  057%=      5-min Rain = 0
KHA2 180238Z 22009KT 00/M07 A3004 RMK A01 T00031073  RH  057%=      5-min Rain = 0
KHA2 180239Z 21008KT 00/M07 A3004 RMK A01 T00031073  RH  057%=      5-min Rain = 0
KHA2 180240Z 21008KT 00/M07 A3004 RMK A01 T00041072  RH  057%=      5-min Rain = 0
KHA2 180241Z 21008KT 00/M07 A3004 RMK A01 T00031073  RH  057%=      5-min Rain = 0
KHA2 180242Z 21009KT 00/M07 A3004 RMK A01 T00031073  RH  057%=      5-min Rain = 0
KHA2 180243Z 22009KT 00/M07 A3004 RMK A01 T00031073  RH  057%=      5-min Rain = 0
KHA2 180244Z 21009KT 00/M07 A3004 RMK A01 T00031073  RH  057%=      5-min Rain = 0
KHA2 180245Z 21010KT 00/M07 A3004 RMK A01 T00031073  RH  057%=      5-min Rain = 0
KHA2 180246Z 21009KT 00/M07 A3004 RMK A01 T00031073  RH  056%=      5-min Rain = 0
KHA2 180247Z 21010KT 00/M07 A3004 RMK A01 T00021074  RH  056%=      5-min Rain = 0
KHA2 180248Z 21010KT 00/M07 A3004 RMK A01 T00021074  RH  057%=      5-min Rain = 0
KHA2 180249Z 21010KT 00/M07 A3003 RMK A01 T00011073  RH  057%=      5-min Rain = 0
KHA2 180250Z 21010KT 00/M07 A3004 RMK A01 T00011073  RH  057%=      5-min Rain = 0
KHA2 180251Z 22010KT 00/M07 A3004 RMK A01 T00021072  RH  058%=      5-min Rain = 0
KHA2 180252Z 22010KT 00/M07 A3004 RMK A01 T00031071  RH  058%=      5-min Rain = 0
KHA2 180253Z 21009KT 00/M07 A3004 RMK A01 T00041071  RH  057%=      5-min Rain = 0
KHA2 180254Z 21009KT 00/M07 A3004 RMK A01 T00041071  RH  057%=      5-min Rain = 0
KHA2 180255Z 21009KT 01/M07 A3004 RMK A01 T00051071  RH  057%=      5-min Rain = 0
KHA2 180256Z 21009KT 00/M07 A3003 RMK A01 T00041071  RH  057%=      5-min Rain = 0
KHA2 180257Z 21010KT 00/M07 A3003 RMK A01 T00041071  RH  057%=      5-min Rain = 0
KHA2 180258Z 21010KT 00/M07 A3003 RMK A01 T00031071  RH  057%=      5-min Rain = 0
KHA2 180259Z 21010KT 00/M07 A3003 RMK A01 T00031072  RH  057%=      5-min Rain = 0
KHA2 180300Z 21010KT 00/M07 A3003 RMK A01 T00031072  RH  057%=      5-min Rain = 0
KHA2 180301Z 21010KT 00/M07 A3003 RMK A01 T00021072  RH  057%=      5-min Rain = 0
KHA2 180302Z 21010KT 00/M07 A3003 RMK A01 T00011072  RH  058%=      5-min Rain = 0
KHA2 180303Z 22010KT 00/M07 A3003 RMK A01 T00011072  RH  058%=      5-min Rain = 0
KHA2 180304Z 22010KT 00/M07 A3003 RMK A01 T00021071  RH  058%=      5-min Rain = 0
KHA2 180305Z 21010KT 00/M07 A3003 RMK A01 T00021070  RH  058%=      5-min Rain = 0
KHA2 180306Z 21010KT 00/M07 A3003 RMK A01 T00031070  RH  058%=      5-min Rain = 0
KHA2 180307Z 21010KT 00/M07 A3003 RMK A01 T00031070  RH  058%=      5-min Rain = 0
KHA2 180308Z 21010KT 00/M07 A3003 RMK A01 T00031069  RH  058%=      5-min Rain = 0
KHA2 180309Z 21010KT 00/M07 A3003 RMK A01 T00021069  RH  059%=      5-min Rain = 0
KHA2 180310Z 21011KT 00/M07 A3003 RMK A01 T00031069  RH  059%=      5-min Rain = 0
KHA2 180311Z 21010KT 00/M07 A3003 RMK A01 T00031069  RH  059%=      5-min Rain = 0
KHA2 180312Z 21010KT 00/M07 A3003 RMK A01 T00031069  RH  059%=      5-min Rain = 0
KHA2 180313Z 22010KT 00/M07 A3003 RMK A01 T00031068  RH  059%=      5-min Rain = 0
KHA2 180314Z 22010KT 00/M07 A3003 RMK A01 T00041068  RH  058%=      5-min Rain = 0
KHA2 180315Z 21010KT 00/M07 A3003 RMK A01 T00041068  RH  058%=      5-min Rain = 0
KHA2 180316Z 21010KT 00/M07 A3003 RMK A01 T00031069  RH  058%=      5-min Rain = 0
KHA2 180317Z 21010KT 00/M07 A3003 RMK A01 T00031069  RH  059%=      5-min Rain = 0
KHA2 180318Z 21010KT 00/M07 A3003 RMK A01 T00031069  RH  059%=      5-min Rain = 0
KHA2 180319Z 21010KT 00/M07 A3003 RMK A01 T00021069  RH  059%=      5-min Rain = 0
KHA2 180320Z 21011KT 00/M07 A3003 RMK A01 T00011069  RH  059%=      5-min Rain = 0
KHA2 180321Z 21010KT 00/07 A3003 RMK A01 T00000-70  RH  059%=      5-min Rain = 0
KHA2 180322Z 21011KT M00/M07 A3003 RMK A01 T10011070  RH  060%=      5-min Rain = 0
KHA2 180323Z 21011KT 00/07 A3003 RMK A01 T00-00-68  RH  060%=      5-min Rain = 0
KHA2 180324Z 21011KT 00/M07 A3003 RMK A01 T00011067  RH  060%=      5-min Rain = 0
KHA2 180325Z 21012KT 00/M07 A3003 RMK A01 T00021066  RH  060%=      5-min Rain = 0
KHA2 180326Z 21012KT 00/M07 A3003 RMK A01 T00031066  RH  060%=      5-min Rain = 0
KHA2 180327Z 21012KT 00/M07 A3003 RMK A01 T00041065  RH  060%=      5-min Rain = 0
KHA2 180328Z 21011KT 01/M07 A3002 RMK A01 T00051065  RH  060%=      5-min Rain = 0
KHA2 180329Z 21011KT 01/M07 A3002 RMK A01 T00051065  RH  059%=      5-min Rain = 0
KHA2 180330Z 21010KT 01/M07 A3002 RMK A01 T00051065  RH  059%=      5-min Rain = 0
KHA2 180331Z 21010KT 01/M07 A3002 RMK A01 T00051065  RH  059%=      5-min Rain = 0
KHA2 180332Z 21009KT 00/M07 A3002 RMK A01 T00031067  RH  059%=      5-min Rain = 0
KHA2 180333Z 21009KT 00/M07 A3002 RMK A01 T00021067  RH  060%=      5-min Rain = 0
KHA2 180334Z 21008KT 00/M07 A3002 RMK A01 T00011067  RH  060%=      5-min Rain = 0
KHA2 180335Z 21008KT 00/M07 A3002 RMK A01 T00011067  RH  060%=      5-min Rain = 0
KHA2 180336Z 21009KT 00/07 A3002 RMK A01 T00000-67  RH  061%=      5-min Rain = 0
KHA2 180337Z 21009KT 00/07 A3002 RMK A01 T00-00-67  RH  061%=      5-min Rain = 0
KHA2 180338Z 21009KT M00/M07 A3002 RMK A01 T10011067  RH  061%=      5-min Rain = 0
KHA2 180339Z 21009KT M00/M07 A3002 RMK A01 T10011066  RH  061%=      5-min Rain = 0
KHA2 180340Z 21010KT M00/M07 A3002 RMK A01 T10011067  RH  061%=      5-min Rain = 0
KHA2 180341Z 21009KT M00/M07 A3002 RMK A01 T10021067  RH  062%=      5-min Rain = 0
KHA2 180342Z 20009KT M00/M07 A3002 RMK A01 T10031067  RH  062%=      5-min Rain = 0
KHA2 180343Z 20010KT M00/M07 A3002 RMK A01 T10041067  RH  062%=      5-min Rain = 0
KHA2 180344Z 20010KT M00/M07 A3002 RMK A01 T10041066  RH  063%=      5-min Rain = 0
KHA2 180345Z 20010KT M00/M07 A3001 RMK A01 T10041065  RH  063%=      5-min Rain = 0
KHA2 180346Z 20010KT M00/M06 A3001 RMK A01 T10031064  RH  063%=      5-min Rain = 0
KHA2 180347Z 20010KT M00/M06 A3001 RMK A01 T10021064  RH  063%=      5-min Rain = 0
KHA2 180348Z 20010KT M00/M06 A3001 RMK A01 T10031064  RH  063%=      5-min Rain = 0
KHA2 180349Z 21010KT M00/M06 A3001 RMK A01 T10031064  RH  063%=      5-min Rain = 0
KHA2 180350Z 21010KT M00/M06 A3001 RMK A01 T10031064  RH  063%=      5-min Rain = 0
KHA2 180351Z 20010KT M00/M06 A3001 RMK A01 T10031064  RH  063%=      5-min Rain = 0
KHA2 180352Z 21011KT M00/M06 A3001 RMK A01 T10031064  RH  064%=      5-min Rain = 0
KHA2 180353Z 20011KT M00/M06 A3001 RMK A01 T10031063  RH  064%=      5-min Rain = 0
KHA2 180354Z 21011KT M00/M06 A3001 RMK A01 T10031063  RH  064%=      5-min Rain = 0
KHA2 180355Z 21011KT M00/M06 A3001 RMK A01 T10031063  RH  064%=      5-min Rain = 0
KHA2 180356Z 21011KT M00/M06 A3001 RMK A01 T10031063  RH  064%=      5-min Rain = 0
KHA2 180357Z 21011KT M00/M06 A3001 RMK A01 T10031063  RH  064%=      5-min Rain = 0
KHA2 180358Z 21011KT M00/M06 A3001 RMK A01 T10031063  RH  064%=      5-min Rain = 0
KHA2 180359Z 21011KT M00/M06 A3001 RMK A01 T10041063  RH  064%=      5-min Rain = 0
KHA2 180400Z 21011KT M00/M06 A3001 RMK A01 T10041063  RH  065%=      5-min Rain = 0
KHA2 180401Z 21012KT M00/M06 A3001 RMK A01 T10041062  RH  065%=      5-min Rain = 0
KHA2 180402Z 21012KT M00/M06 A30 RMK A01 T10031061  RH  065%=      5-min Rain = 0
KHA2 180403Z 21011KT M00/M06 A30 RMK A01 T10021060  RH  065%=      5-min Rain = 0
KHA2 180404Z 21011KT M00/M06 A30 RMK A01 T10011061  RH  064%=      5-min Rain = 0
KHA2 180405Z 21011KT M00/M06 A30 RMK A01 T10011061  RH  064%=      5-min Rain = 0
KHA2 180406Z 21011KT 00/06 A30 RMK A01 T00-00-60  RH  064%=      5-min Rain = 0
KHA2 180407Z 21011KT 00/06 A30 RMK A01 T00000-60  RH  064%=      5-min Rain = 0
KHA2 180408Z 21010KT 00/M06 A30 RMK A01 T00011060  RH  064%=      5-min Rain = 0
KHA2 180409Z 21011KT 00/06 A30 RMK A01 T00000-60  RH  064%=      5-min Rain = 0
KHA2 180410Z 21011KT 00/M06 A30 RMK A01 T00011060  RH  064%=      5-min Rain = 0
KHA2 180411Z 21010KT 00/M06 A30 RMK A01 T00011060  RH  064%=      5-min Rain = 0
KHA2 180412Z 21011KT 00/06 A30 RMK A01 T00000-60  RH  064%=      5-min Rain = 0
KHA2 180413Z 21011KT 00/M06 A30 RMK A01 T00011060  RH  064%=      5-min Rain = 0
KHA2 180414Z 21011KT 00/M06 A30 RMK A01 T00011060  RH  064%=      5-min Rain = 0
KHA2 180415Z 21011KT 00/06 A30 RMK A01 T00000-60  RH  064%=      5-min Rain = 0
KHA2 180416Z 21011KT 00/06 A30 RMK A01 T00-00-60  RH  064%=      5-min Rain = 0
KHA2 180417Z 21011KT 00/06 A30 RMK A01 T00-00-60  RH  064%=      5-min Rain = 0
KHA2 180418Z 21011KT 00/06 A30 RMK A01 T00-00-60  RH  064%=      5-min Rain = 0
KHA2 180419Z 21011KT 00/06 A30 RMK A01 T00-00-60  RH  064%=      5-min Rain = 0
KHA2 180420Z 21011KT M00/M06 A30 RMK A01 T10011060  RH  064%=      5-min Rain = 0
KHA2 180421Z 21011KT M00/M06 A30 RMK A01 T10011060  RH  064%=      5-min Rain = 0
KHA2 180422Z 21011KT M00/M06 A30 RMK A01 T10011060  RH  065%=      5-min Rain = 0
KHA2 180423Z 21012KT M00/M06 A30 RMK A01 T10011060  RH  065%=      5-min Rain = 0
KHA2 180424Z 21011KT M00/M06 A30 RMK A01 T10011059  RH  065%=      5-min Rain = 0
KHA2 180425Z 21011KT M00/M06 A30 RMK A01 T10011059  RH  065%=      5-min Rain = 0
KHA2 180426Z 21011KT M00/M06 A30 RMK A01 T10011059  RH  065%=      5-min Rain = 0
KHA2 180427Z 21011KT M00/M06 A30 RMK A01 T10011059  RH  065%=      5-min Rain = 0
KHA2 180428Z 21011KT M00/M06 A30 RMK A01 T10011058  RH  065%=      5-min Rain = 0
KHA2 180429Z 22010KT M00/M06 A30 RMK A01 T10011058  RH  065%=      5-min Rain = 0
KHA2 180430Z 22010KT 00/06 A30 RMK A01 T00-00-58  RH  065%=      5-min Rain = 0
KHA2 180431Z 21010KT 00/06 A30 RMK A01 T00000-57  RH  065%=      5-min Rain = 0
KHA2 180432Z 21010KT 00/06 A30 RMK A01 T00-00-58  RH  065%=      5-min Rain = 0
KHA2 180433Z 21010KT M00/M06 A30 RMK A01 T10011058  RH  065%=      5-min Rain = 0
KHA2 180434Z 21010KT M00/M06 A30 RMK A01 T10011057  RH  066%=      5-min Rain = 0
KHA2 180435Z 21010KT M00/M06 A2999 RMK A01 T10011058  RH  066%=      5-min Rain = 0
KHA2 180436Z 21010KT M00/M06 A2999 RMK A01 T10011058  RH  066%=      5-min Rain = 0
KHA2 180437Z 21010KT M00/M06 A30 RMK A01 T10021058  RH  066%=      5-min Rain = 0
KHA2 180438Z 21010KT M00/M06 A2999 RMK A01 T10031058  RH  066%=      5-min Rain = 0
KHA2 180439Z 21010KT M00/M06 A2999 RMK A01 T10031058  RH  066%=      5-min Rain = 0
KHA2 180440Z 21010KT M00/M06 A30 RMK A01 T10031058  RH  067%=      5-min Rain = 0
KHA2 180441Z 21010KT M00/M06 A30 RMK A01 T10031057  RH  067%=      5-min Rain = 0
KHA2 180442Z 21010KT M00/M06 A2999 RMK A01 T10031057  RH  067%=      5-min Rain = 0
KHA2 180443Z 21010KT M00/M06 A2999 RMK A01 T10031057  RH  067%=      5-min Rain = 0
KHA2 180444Z 21010KT M00/M06 A2999 RMK A01 T10041057  RH  067%=      5-min Rain = 0
KHA2 180445Z 22009KT M00/M06 A2999 RMK A01 T10041057  RH  067%=      5-min Rain = 0
KHA2 180446Z 22009KT M00/M06 A2999 RMK A01 T10041057  RH  067%=      5-min Rain = 0
KHA2 180447Z 21009KT M00/M06 A2999 RMK A01 T10041057  RH  067%=      5-min Rain = 0
KHA2 180448Z 22009KT M00/M06 A2999 RMK A01 T10041057  RH  067%=      5-min Rain = 0
KHA2 180449Z 21009KT M00/M06 A2999 RMK A01 T10041057  RH  067%=      5-min Rain = 0
KHA2 180450Z 22009KT M00/M06 A2999 RMK A01 T10041057  RH  067%=      5-min Rain = 0
KHA2 180451Z 22009KT M01/M06 A2999 RMK A01 T10051058  RH  067%=      5-min Rain = 0
KHA2 180452Z 22009KT M01/M06 A2999 RMK A01 T10071060  RH  068%=      5-min Rain = 0
KHA2 180453Z 22009KT M01/M06 A2999 RMK A01 T10081060  RH  068%=      5-min Rain = 0
KHA2 180454Z 22009KT M01/M06 A2999 RMK A01 T10091060  RH  068%=      5-min Rain = 0
KHA2 180455Z 22009KT M01/M06 A2999 RMK A01 T10091059  RH  069%=      5-min Rain = 0
KHA2 180456Z 22009KT M01/M06 A2999 RMK A01 T10091059  RH  069%=      5-min Rain = 0
KHA2 180457Z 22009KT M01/M06 A2999 RMK A01 T10091059  RH  069%=      5-min Rain = 0
KHA2 180458Z 21009KT M01/M06 A2999 RMK A01 T10091059  RH  069%=      5-min Rain = 0
KHA2 180459Z 21009KT M01/M06 A2999 RMK A01 T10091059  RH  069%=      5-min Rain = 0
KHA2 180500Z 22009KT M01/M06 A2999 RMK A01 T10101060  RH  069%=      5-min Rain = 0
KHA2 180501Z 21009KT M01/M06 A2999 RMK A01 T10101059  RH  069%=      5-min Rain = 0
KHA2 180502Z 21009KT M01/M06 A2998 RMK A01 T10111059  RH  069%=      5-min Rain = 0
KHA2 180503Z 21009KT M01/M06 A2998 RMK A01 T10111059  RH  070%=      5-min Rain = 0
KHA2 180504Z 21009KT M01/M06 A2998 RMK A01 T10101058  RH  070%=      5-min Rain = 0
KHA2 180505Z 21009KT M01/M06 A2998 RMK A01 T10091057  RH  070%=      5-min Rain = 0
KHA2 180506Z 21010KT M01/M06 A2998 RMK A01 T10081057  RH  069%=      5-min Rain = 0
KHA2 180507Z 21010KT M01/M06 A2998 RMK A01 T10081057  RH  069%=      5-min Rain = 0
KHA2 180508Z 21011KT M01/M06 A2998 RMK A01 T10071057  RH  069%=      5-min Rain = 0
KHA2 180509Z 21011KT M01/M06 A2998 RMK A01 T10071057  RH  069%=      5-min Rain = 0
KHA2 180510Z 21010KT M01/M06 A2998 RMK A01 T10071057  RH  069%=      5-min Rain = 0
KHA2 180511Z 21010KT M01/M06 A2998 RMK A01 T10071057  RH  069%=      5-min Rain = 0
KHA2 180512Z 21010KT M01/M06 A2998 RMK A01 T10071057  RH  069%=      5-min Rain = 0
KHA2 180513Z 21010KT M01/M06 A2998 RMK A01 T10081058  RH  069%=      5-min Rain = 0
KHA2 180514Z 21010KT M01/M06 A2998 RMK A01 T10081058  RH  069%=      5-min Rain = 0
KHA2 180515Z 22010KT M01/M06 A2998 RMK A01 T10081057  RH  069%=      5-min Rain = 0
KHA2 180516Z 21010KT M01/M06 A2998 RMK A01 T10081058  RH  069%=      5-min Rain = 0
KHA2 180517Z 22010KT M01/M06 A2998 RMK A01 T10081057  RH  069%=      5-min Rain = 0
KHA2 180518Z 22011KT M01/M06 A2998 RMK A01 T10081057  RH  069%=      5-min Rain = 0
KHA2 180519Z 21011KT M01/M06 A2998 RMK A01 T10081058  RH  069%=      5-min Rain = 0
KHA2 180520Z 22010KT M01/M06 A2998 RMK A01 T10081057  RH  069%=      5-min Rain = 0
KHA2 180521Z 22009KT M01/M06 A2997 RMK A01 T10081057  RH  069%=      5-min Rain = 0
KHA2 180522Z 22010KT M01/M06 A2998 RMK A01 T10081057  RH  069%=      5-min Rain = 0
KHA2 180523Z 22010KT M01/M06 A2998 RMK A01 T10081057  RH  069%=      5-min Rain = 0
KHA2 180524Z 22010KT M01/M06 A2998 RMK A01 T10081057  RH  069%=      5-min Rain = 0
KHA2 180525Z 22009KT M01/M06 A2997 RMK A01 T10071056  RH  070%=      5-min Rain = 0
KHA2 180526Z 22009KT M01/M06 A2997 RMK A01 T10081057  RH  069%=      5-min Rain = 0
KHA2 180527Z 22010KT M01/M06 A2997 RMK A01 T10081057  RH  069%=      5-min Rain = 0
KHA2 180528Z 22010KT M01/M06 A2997 RMK A01 T10091058  RH  069%=      5-min Rain = 0
KHA2 180529Z 22010KT M01/M06 A2997 RMK A01 T10091057  RH  070%=      5-min Rain = 0
KHA2 180530Z 21010KT M01/M06 A2997 RMK A01 T10091057  RH  070%=      5-min Rain = 0
KHA2 180531Z 21010KT M01/M06 A2997 RMK A01 T10091057  RH  070%=      5-min Rain = 0
KHA2 180532Z 21010KT M01/M06 A2997 RMK A01 T10091057  RH  070%=      5-min Rain = 0
KHA2 180533Z 21011KT M01/M06 A2997 RMK A01 T10081056  RH  070%=      5-min Rain = 0
KHA2 180534Z 21010KT M01/M06 A2997 RMK A01 T10081056  RH  070%=      5-min Rain = 0
KHA2 180535Z 21010KT M01/M06 A2997 RMK A01 T10071056  RH  070%=      5-min Rain = 0
KHA2 180536Z 21010KT M01/M06 A2997 RMK A01 T10071056  RH  070%=      5-min Rain = 0
KHA2 180537Z 21010KT M01/M06 A2997 RMK A01 T10071055  RH  070%=      5-min Rain = 0
KHA2 180538Z 21010KT M01/M06 A2997 RMK A01 T10071055  RH  070%=      5-min Rain = 0
KHA2 180539Z 21011KT M01/M06 A2997 RMK A01 T10071055  RH  070%=      5-min Rain = 0
KHA2 180540Z 21011KT M01/M06 A2997 RMK A01 T10071055  RH  070%=      5-min Rain = 0
KHA2 180541Z 21010KT M01/M06 A2997 RMK A01 T10061055  RH  070%=      5-min Rain = 0
KHA2 180542Z 21010KT M01/M06 A2997 RMK A01 T10061055  RH  069%=      5-min Rain = 0
KHA2 180543Z 21011KT M01/M06 A2997 RMK A01 T10061055  RH  070%=      5-min Rain = 0
KHA2 180544Z 21011KT M01/M05 A2997 RMK A01 T10051054  RH  069%=      5-min Rain = 0
KHA2 180545Z 21010KT M01/M05 A2997 RMK A01 T10051054  RH  069%=      5-min Rain = 0
KHA2 180546Z 22010KT M01/M06 A2997 RMK A01 T10051055  RH  069%=      5-min Rain = 0
KHA2 180547Z 21010KT M01/M06 A2997 RMK A01 T10051055  RH  069%=      5-min Rain = 0
KHA2 180548Z 22009KT M01/M06 A2997 RMK A01 T10061055  RH  069%=      5-min Rain = 0
KHA2 180549Z 22009KT M01/M06 A2996 RMK A01 T10061055  RH  069%=      5-min Rain = 0
KHA2 180550Z 21010KT M01/M06 A2996 RMK A01 T10071056  RH  069%=      5-min Rain = 0
KHA2 180551Z 21010KT M01/M06 A2996 RMK A01 T10071056  RH  070%=      5-min Rain = 0
KHA2 180552Z 21010KT M01/M06 A2996 RMK A01 T10071056  RH  070%=      5-min Rain = 0
KHA2 180553Z 21011KT M01/M06 A2996 RMK A01 T10071055  RH  070%=      5-min Rain = 0
KHA2 180554Z 21010KT M01/M05 A2996 RMK A01 T10061054  RH  070%=      5-min Rain = 0
KHA2 180555Z 22010KT M01/M06 A2996 RMK A01 T10051055  RH  069%=      5-min Rain = 0
KHA2 180556Z 21011KT M01/M06 A2996 RMK A01 T10051055  RH  069%=      5-min Rain = 0
KHA2 180557Z 21010KT M01/M06 A2996 RMK A01 T10051055  RH  069%=      5-min Rain = 0
KHA2 180558Z 21010KT M01/M06 A2996 RMK A01 T10051055  RH  069%=      5-min Rain = 0
KHA2 180559Z 21010KT M01/M06 A2996 RMK A01 T10051055  RH  069%=      5-min Rain = 0

Page generated in 0.0664 seconds.